GEFSSGP_prec_meanprecacc_054.txt.gz
Total_Precipitation_Accumulation
0.04 0.14 0.24 0.32 0.41 0.16 0.01 0.00 0.00 0.00 0.00 0.00 0.00 0.00 0.00 0.00 0.03 0.20 0.06 0.00 0.00 0.00 0.01 0.07 0.13 0.10 0.08 0.16 0.25 0.35 0.39 0.48 0.37 0.28 0.20 0.14 0.10 0.12 0.13 0.09 0.12 0.18 0.13 0.09 0.15 0.26 0.30 0.34 0.37
0.08 0.22 0.32 0.46 0.38 0.04 0.00 0.00 0.00 0.00 0.00 0.00 0.00 0.00 0.00 0.00 0.00 0.01 0.00 0.00 0.00 0.00 0.02 0.08 0.11 0.10 0.11 0.19 0.27 0.33 0.39 0.48 0.41 0.29 0.16 0.09 0.09 0.13 0.14 0.24 0.33 0.23 0.10 0.08 0.14 0.26 0.30 0.30 0.35
0.08 0.16 0.33 0.43 0.18 0.01 0.00 0.00 0.00 0.00 0.00 0.00 0.00 0.00 0.00 0.00 0.00 0.00 0.00 0.00 0.00 0.00 0.04 0.11 0.12 0.10 0.12 0.21 0.34 0.38 0.45 0.48 0.40 0.28 0.13 0.08 0.11 0.16 0.25 0.36 0.31 0.15 0.07 0.07 0.11 0.21 0.25 0.23 0.23
0.12 0.20 0.30 0.25 0.09 0.01 0.00 0.00 0.00 0.00 0.00 0.00 0.00 0.00 0.00 0.00 0.00 0.00 0.00 0.00 0.00 0.00 0.02 0.10 0.14 0.10 0.13 0.26 0.42 0.43 0.46 0.50 0.45 0.28 0.14 0.11 0.14 0.15 0.21 0.30 0.26 0.11 0.03 0.04 0.08 0.17 0.21 0.20 0.18
0.10 0.20 0.36 0.23 0.06 0.01 0.00 0.00 0.00 0.00 0.00 0.00 0.00 0.00 0.00 0.00 0.00 0.01 0.00 0.00 0.00 0.00 0.02 0.06 0.11 0.10 0.15 0.30 0.41 0.44 0.49 0.50 0.45 0.26 0.18 0.17 0.16 0.12 0.17 0.20 0.18 0.06 0.02 0.03 0.05 0.11 0.15 0.15 0.17
0.13 0.27 0.50 0.35 0.08 0.01 0.00 0.00 0.00 0.00 0.00 0.00 0.00 0.00 0.00 0.00 0.00 0.01 0.00 0.01 0.01 0.00 0.01 0.04 0.10 0.13 0.18 0.27 0.34 0.38 0.45 0.48 0.42 0.25 0.21 0.20 0.18 0.15 0.15 0.16 0.12 0.04 0.02 0.02 0.03 0.06 0.09 0.10 0.13
0.15 0.35 0.60 0.48 0.18 0.02 0.00 0.00 0.00 0.00 0.00 0.00 0.00 0.00 0.00 0.00 0.01 0.01 0.02 0.02 0.02 0.01 0.01 0.04 0.07 0.08 0.18 0.26 0.31 0.32 0.37 0.41 0.42 0.28 0.21 0.21 0.17 0.12 0.10 0.09 0.04 0.02 0.01 0.01 0.02 0.03 0.03 0.05 0.11
0.08 0.19 0.40 0.35 0.18 0.05 0.02 0.00 0.01 0.00 0.00 0.00 0.00 0.00 0.00 0.00 0.00 0.02 0.03 0.05 0.03 0.02 0.01 0.02 0.03 0.06 0.09 0.13 0.22 0.31 0.33 0.35 0.40 0.30 0.22 0.19 0.11 0.07 0.07 0.03 0.02 0.00 0.00 0.00 0.01 0.01 0.01 0.04 0.10
0.16 0.17 0.32 0.35 0.22 0.13 0.04 0.01 0.01 0.01 0.01 0.01 0.01 0.01 0.00 0.00 0.00 0.01 0.02 0.03 0.02 0.02 0.02 0.01 0.02 0.02 0.05 0.09 0.12 0.25 0.31 0.35 0.38 0.32 0.26 0.21 0.18 0.10 0.05 0.03 0.03 0.01 0.01 0.01 0.02 0.03 0.03 0.03 0.07
0.29 0.32 0.44 0.50 0.28 0.19 0.07 0.03 0.02 0.02 0.02 0.01 0.01 0.02 0.01 0.01 0.01 0.03 0.04 0.05 0.05 0.04 0.03 0.02 0.02 0.02 0.02 0.06 0.17 0.26 0.26 0.19 0.23 0.37 0.33 0.23 0.24 0.18 0.04 0.02 0.03 0.03 0.02 0.02 0.03 0.04 0.02 0.01 0.01
0.25 0.31 0.31 0.38 0.25 0.12 0.07 0.04 0.04 0.04 0.05 0.04 0.03 0.03 0.03 0.03 0.04 0.05 0.08 0.09 0.09 0.08 0.06 0.06 0.05 0.03 0.03 0.09 0.18 0.29 0.39 0.35 0.30 0.30 0.27 0.20 0.11 0.03 0.02 0.04 0.05 0.05 0.04 0.02 0.02 0.01 0.00 0.00 0.00
0.15 0.13 0.11 0.10 0.09 0.08 0.08 0.07 0.07 0.07 0.10 0.09 0.06 0.06 0.07 0.08 0.10 0.12 0.13 0.13 0.13 0.12 0.12 0.11 0.07 0.07 0.05 0.03 0.06 0.14 0.21 0.29 0.30 0.16 0.12 0.08 0.06 0.04 0.02 0.03 0.05 0.05 0.05 0.03 0.00 0.00 0.00 0.00 0.01
0.15 0.11 0.06 0.08 0.10 0.10 0.09 0.10 0.09 0.09 0.12 0.11 0.09 0.10 0.14 0.17 0.19 0.20 0.18 0.18 0.17 0.18 0.20 0.20 0.15 0.14 0.11 0.07 0.04 0.05 0.12 0.20 0.24 0.20 0.13 0.08 0.03 0.04 0.02 0.01 0.02 0.02 0.02 0.01 0.00 0.00 0.00 0.00 0.01
0.09 0.12 0.17 0.17 0.14 0.11 0.10 0.11 0.11 0.15 0.16 0.14 0.12 0.13 0.18 0.23 0.25 0.24 0.23 0.22 0.21 0.21 0.28 0.29 0.26 0.28 0.24 0.16 0.11 0.12 0.13 0.17 0.21 0.21 0.13 0.08 0.03 0.04 0.03 0.02 0.02 0.02 0.02 0.03 0.01 0.00 0.00 0.00 0.00
0.04 0.08 0.11 0.10 0.09 0.09 0.09 0.10 0.12 0.20 0.20 0.16 0.14 0.15 0.18 0.23 0.25 0.26 0.27 0.27 0.28 0.27 0.29 0.30 0.30 0.33 0.33 0.31 0.27 0.24 0.24 0.22 0.24 0.23 0.16 0.11 0.05 0.04 0.04 0.04 0.06 0.06 0.03 0.01 0.01 0.02 0.01 0.00 0.01
0.04 0.04 0.07 0.07 0.07 0.09 0.08 0.08 0.14 0.23 0.21 0.19 0.19 0.19 0.18 0.20 0.24 0.26 0.29 0.28 0.30 0.29 0.29 0.32 0.30 0.33 0.38 0.40 0.41 0.41 0.37 0.37 0.39 0.34 0.24 0.21 0.11 0.09 0.11 0.11 0.13 0.16 0.07 0.03 0.03 0.04 0.02 0.02 0.01
0.11 0.06 0.07 0.10 0.10 0.12 0.14 0.14 0.17 0.23 0.20 0.18 0.19 0.20 0.19 0.21 0.23 0.27 0.28 0.29 0.30 0.30 0.31 0.34 0.37 0.40 0.43 0.47 0.53 0.58 0.60 0.61 0.68 0.62 0.54 0.48 0.30 0.23 0.24 0.28 0.26 0.22 0.18 0.12 0.07 0.06 0.05 0.05 0.04
0.30 0.11 0.08 0.09 0.12 0.13 0.15 0.17 0.17 0.20 0.17 0.15 0.15 0.14 0.17 0.21 0.25 0.28 0.30 0.31 0.33 0.32 0.33 0.37 0.45 0.51 0.58 0.72 0.90 1.04 1.04 1.17 1.37 1.26 1.04 0.80 0.61 0.51 0.52 0.55 0.47 0.38 0.40 0.41 0.21 0.17 0.14 0.12 0.08
0.15 0.10 0.08 0.09 0.11 0.10 0.11 0.12 0.12 0.13 0.11 0.12 0.12 0.11 0.12 0.13 0.17 0.20 0.22 0.24 0.24 0.23 0.26 0.33 0.39 0.48 0.58 0.78 1.08 1.47 1.62 1.68 1.66 1.66 1.50 1.21 0.93 0.87 0.94 0.91 0.82 0.73 0.71 0.63 0.48 0.47 0.38 0.25 0.13
0.09 0.09 0.08 0.06 0.08 0.06 0.06 0.05 0.05 0.06 0.07 0.08 0.08 0.09 0.09 0.11 0.12 0.11 0.13 0.15 0.14 0.14 0.16 0.25 0.31 0.41 0.54 0.79 1.09 1.43 1.75 1.78 1.73 1.69 1.61 1.44 1.29 1.22 1.21 1.30 1.29 1.17 1.17 1.09 0.90 0.91 0.84 0.58 0.36
0.07 0.10 0.10 0.07 0.05 0.05 0.04 0.03 0.03 0.03 0.05 0.05 0.06 0.07 0.08 0.10 0.11 0.09 0.08 0.09 0.10 0.10 0.11 0.16 0.22 0.37 0.64 0.95 1.27 1.45 1.73 1.83 1.84 1.74 1.72 1.66 1.56 1.43 1.37 1.42 1.46 1.38 1.35 1.36 1.34 1.24 1.19 0.98 0.66
0.06 0.06 0.05 0.05 0.05 0.04 0.04 0.04 0.03 0.04 0.08 0.10 0.12 0.13 0.15 0.17 0.14 0.11 0.08 0.06 0.06 0.07 0.08 0.11 0.17 0.36 0.69 1.01 1.26 1.49 1.83 1.91 1.80 1.80 1.80 1.76 1.69 1.59 1.57 1.52 1.57 1.51 1.41 1.44 1.46 1.33 1.33 1.29 1.01
0.03 0.03 0.03 0.04 0.05 0.04 0.03 0.04 0.04 0.07 0.14 0.20 0.22 0.23 0.23 0.20 0.14 0.11 0.09 0.07 0.07 0.07 0.09 0.15 0.27 0.45 0.69 0.90 1.14 1.47 1.71 1.81 1.86 1.76 1.76 1.76 1.76 1.71 1.65 1.60 1.66 1.63 1.54 1.46 1.56 1.52 1.52 1.41 1.31
0.01 0.02 0.04 0.05 0.07 0.05 0.03 0.07 0.13 0.17 0.18 0.19 0.21 0.22 0.22 0.19 0.15 0.14 0.13 0.14 0.12 0.14 0.18 0.26 0.39 0.54 0.72 0.89 1.07 1.23 1.45 1.60 1.71 1.71 1.67 1.65 1.65 1.71 1.58 1.44 1.48 1.46 1.43 1.41 1.51 1.57 1.62 1.54 1.52
0.01 0.04 0.10 0.13 0.15 0.12 0.07 0.16 0.28 0.23 0.18 0.18 0.19 0.21 0.22 0.23 0.24 0.28 0.28 0.31 0.35 0.38 0.40 0.46 0.54 0.64 0.74 0.80 0.86 0.93 1.06 1.19 1.24 1.32 1.38 1.49 1.49 1.55 1.55 1.41 1.37 1.30 1.22 1.20 1.26 1.31 1.32 1.39 1.47
0.01 0.03 0.10 0.14 0.15 0.15 0.17 0.36 0.40 0.27 0.22 0.22 0.22 0.25 0.28 0.35 0.41 0.50 0.57 0.64 0.69 0.67 0.66 0.70 0.75 0.71 0.67 0.66 0.68 0.72 0.75 0.83 0.87 0.89 0.91 1.04 1.21 1.24 1.29 1.26 1.17 1.17 1.20 1.19 1.18 1.17 1.14 1.07 1.09
0.01 0.03 0.06 0.13 0.12 0.13 0.20 0.42 0.44 0.32 0.31 0.31 0.31 0.33 0.41 0.59 0.69 0.78 0.86 0.87 0.84 0.78 0.74 0.75 0.75 0.68 0.63 0.62 0.58 0.55 0.53 0.54 0.58 0.59 0.62 0.65 0.74 0.77 0.84 0.94 0.96 0.97 1.04 1.08 1.14 1.16 1.08 0.95 0.92
0.03 0.07 0.13 0.26 0.34 0.30 0.31 0.48 0.51 0.43 0.38 0.36 0.41 0.48 0.64 0.90 1.04 1.17 1.23 1.12 1.01 0.97 0.98 0.86 0.75 0.66 0.62 0.58 0.52 0.46 0.42 0.40 0.42 0.43 0.46 0.44 0.45 0.46 0.51 0.59 0.65 0.70 0.82 0.91 0.97 1.00 1.02 0.97 0.91
0.10 0.16 0.24 0.37 0.45 0.57 0.70 0.84 0.68 0.58 0.58 0.65 0.74 0.82 1.00 1.26 1.42 1.51 1.51 1.39 1.17 1.00 0.98 0.92 0.77 0.64 0.52 0.50 0.47 0.44 0.38 0.35 0.34 0.33 0.32 0.27 0.29 0.34 0.37 0.44 0.48 0.49 0.54 0.67 0.84 0.91 0.89 0.87 0.84
0.22 0.37 0.50 0.74 0.74 0.67 0.87 1.09 0.84 0.69 0.71 0.74 0.80 0.91 1.09 1.21 1.29 1.33 1.28 1.27 1.14 1.01 0.91 0.88 0.78 0.61 0.52 0.52 0.51 0.47 0.37 0.33 0.33 0.31 0.28 0.24 0.24 0.26 0.30 0.37 0.42 0.46 0.47 0.49 0.58 0.68 0.70 0.69 0.71

GEFSSGP_prec_meanprecacc_060.txt.gz
Total_Precipitation_Accumulation
0.04 0.14 0.24 0.33 0.42 0.16 0.01 0.00 0.00 0.00 0.00 0.00 0.00 0.00 0.00 0.00 0.04 0.21 0.07 0.00 0.00 0.00 0.01 0.07 0.13 0.11 0.10 0.18 0.27 0.36 0.41 0.50 0.39 0.30 0.22 0.16 0.12 0.14 0.15 0.11 0.14 0.20 0.15 0.11 0.18 0.29 0.33 0.36 0.39
0.08 0.22 0.32 0.46 0.38 0.04 0.00 0.00 0.00 0.00 0.00 0.00 0.00 0.00 0.00 0.00 0.00 0.01 0.01 0.00 0.00 0.00 0.02 0.08 0.12 0.11 0.13 0.20 0.28 0.35 0.41 0.51 0.43 0.30 0.17 0.10 0.10 0.14 0.16 0.26 0.34 0.24 0.11 0.10 0.16 0.29 0.32 0.32 0.38
0.08 0.16 0.33 0.43 0.18 0.01 0.00 0.00 0.00 0.00 0.00 0.00 0.00 0.00 0.00 0.00 0.00 0.00 0.00 0.00 0.00 0.00 0.04 0.11 0.13 0.10 0.13 0.22 0.35 0.39 0.46 0.50 0.42 0.29 0.14 0.09 0.12 0.17 0.27 0.38 0.32 0.16 0.08 0.09 0.14 0.24 0.28 0.25 0.25
0.12 0.20 0.30 0.25 0.09 0.01 0.00 0.00 0.00 0.00 0.00 0.00 0.00 0.00 0.00 0.00 0.00 0.00 0.00 0.00 0.00 0.00 0.02 0.10 0.14 0.10 0.14 0.27 0.43 0.44 0.47 0.52 0.47 0.29 0.14 0.12 0.14 0.16 0.22 0.31 0.27 0.12 0.05 0.05 0.09 0.19 0.24 0.22 0.21
0.10 0.20 0.36 0.24 0.06 0.01 0.00 0.00 0.00 0.00 0.00 0.00 0.00 0.00 0.00 0.01 0.01 0.01 0.00 0.00 0.00 0.00 0.02 0.06 0.12 0.10 0.15 0.30 0.42 0.45 0.50 0.52 0.47 0.28 0.19 0.17 0.17 0.13 0.18 0.21 0.19 0.07 0.03 0.03 0.06 0.13 0.17 0.17 0.19
0.13 0.27 0.50 0.35 0.08 0.01 0.00 0.00 0.00 0.00 0.00 0.00 0.00 0.00 0.01 0.01 0.01 0.01 0.01 0.01 0.01 0.00 0.01 0.04 0.10 0.14 0.19 0.28 0.35 0.40 0.47 0.51 0.45 0.27 0.21 0.20 0.19 0.16 0.16 0.17 0.13 0.05 0.03 0.02 0.03 0.07 0.10 0.11 0.15
0.15 0.35 0.60 0.48 0.19 0.03 0.01 0.00 0.00 0.00 0.00 0.00 0.00 0.00 0.01 0.02 0.02 0.01 0.02 0.03 0.02 0.01 0.01 0.04 0.08 0.10 0.19 0.28 0.32 0.35 0.40 0.44 0.45 0.30 0.22 0.22 0.18 0.12 0.11 0.09 0.05 0.02 0.02 0.02 0.02 0.04 0.04 0.06 0.12
0.08 0.19 0.40 0.36 0.20 0.06 0.02 0.01 0.01 0.01 0.01 0.01 0.01 0.00 0.01 0.03 0.04 0.03 0.04 0.05 0.04 0.03 0.01 0.02 0.04 0.07 0.11 0.16 0.26 0.35 0.39 0.41 0.45 0.34 0.25 0.21 0.13 0.08 0.07 0.04 0.02 0.01 0.01 0.01 0.01 0.02 0.02 0.04 0.11
0.16 0.18 0.33 0.37 0.24 0.14 0.05 0.03 0.03 0.02 0.02 0.02 0.02 0.02 0.02 0.03 0.04 0.05 0.07 0.08 0.06 0.04 0.03 0.03 0.03 0.03 0.07 0.11 0.14 0.30 0.38 0.44 0.47 0.38 0.30 0.22 0.20 0.13 0.07 0.03 0.04 0.02 0.01 0.01 0.02 0.03 0.03 0.03 0.07
0.29 0.32 0.45 0.50 0.28 0.20 0.09 0.05 0.04 0.04 0.04 0.03 0.03 0.04 0.06 0.08 0.09 0.11 0.14 0.16 0.16 0.14 0.10 0.08 0.07 0.05 0.04 0.08 0.18 0.30 0.31 0.27 0.30 0.45 0.39 0.27 0.28 0.21 0.05 0.03 0.04 0.03 0.02 0.02 0.03 0.04 0.02 0.01 0.01
0.25 0.31 0.31 0.39 0.26 0.14 0.10 0.07 0.07 0.08 0.09 0.08 0.07 0.07 0.11 0.14 0.16 0.19 0.22 0.22 0.24 0.23 0.18 0.14 0.12 0.09 0.08 0.14 0.22 0.33 0.44 0.43 0.37 0.35 0.33 0.27 0.16 0.06 0.03 0.05 0.06 0.05 0.05 0.03 0.02 0.01 0.00 0.00 0.00
0.15 0.14 0.12 0.11 0.10 0.09 0.10 0.09 0.10 0.10 0.12 0.11 0.11 0.12 0.17 0.21 0.25 0.29 0.30 0.30 0.30 0.30 0.31 0.25 0.18 0.16 0.12 0.12 0.13 0.19 0.27 0.36 0.38 0.23 0.18 0.16 0.13 0.08 0.04 0.05 0.06 0.06 0.06 0.04 0.01 0.00 0.00 0.00 0.01
0.15 0.11 0.08 0.10 0.11 0.11 0.11 0.12 0.11 0.11 0.14 0.13 0.14 0.19 0.24 0.30 0.35 0.37 0.35 0.34 0.33 0.36 0.42 0.38 0.29 0.26 0.22 0.19 0.13 0.10 0.18 0.29 0.34 0.32 0.23 0.17 0.11 0.09 0.05 0.03 0.03 0.03 0.03 0.02 0.01 0.00 0.00 0.00 0.01
0.09 0.13 0.18 0.18 0.15 0.12 0.11 0.11 0.12 0.16 0.18 0.16 0.15 0.19 0.25 0.33 0.38 0.39 0.37 0.37 0.36 0.38 0.46 0.45 0.43 0.42 0.36 0.28 0.23 0.23 0.26 0.31 0.34 0.34 0.26 0.20 0.14 0.11 0.08 0.05 0.03 0.03 0.04 0.04 0.02 0.01 0.00 0.00 0.00
0.05 0.09 0.11 0.10 0.10 0.10 0.10 0.10 0.12 0.21 0.21 0.18 0.16 0.17 0.21 0.28 0.32 0.35 0.35 0.35 0.38 0.39 0.41 0.42 0.43 0.49 0.47 0.45 0.41 0.38 0.42 0.41 0.42 0.40 0.31 0.24 0.14 0.12 0.11 0.09 0.09 0.09 0.05 0.03 0.02 0.02 0.01 0.00 0.01
0.04 0.05 0.07 0.07 0.08 0.09 0.09 0.08 0.14 0.23 0.21 0.20 0.21 0.21 0.20 0.23 0.27 0.31 0.33 0.34 0.37 0.36 0.36 0.41 0.39 0.45 0.53 0.56 0.58 0.60 0.61 0.61 0.64 0.57 0.45 0.38 0.25 0.20 0.20 0.18 0.19 0.21 0.11 0.05 0.05 0.05 0.03 0.02 0.01
0.11 0.06 0.07 0.10 0.10 0.13 0.15 0.14 0.18 0.23 0.20 0.19 0.19 0.21 0.20 0.22 0.25 0.29 0.30 0.32 0.33 0.34 0.35 0.39 0.43 0.48 0.53 0.58 0.68 0.75 0.81 0.86 0.97 0.92 0.80 0.68 0.47 0.38 0.37 0.39 0.36 0.31 0.25 0.19 0.11 0.08 0.07 0.08 0.06
0.30 0.11 0.08 0.09 0.12 0.13 0.16 0.17 0.17 0.20 0.17 0.16 0.15 0.15 0.17 0.21 0.25 0.28 0.30 0.32 0.34 0.33 0.35 0.39 0.47 0.54 0.63 0.78 0.99 1.20 1.25 1.41 1.63 1.54 1.35 1.11 0.85 0.73 0.73 0.71 0.62 0.53 0.52 0.51 0.27 0.22 0.18 0.15 0.12
0.15 0.10 0.08 0.09 0.11 0.10 0.11 0.12 0.13 0.13 0.12 0.12 0.12 0.12 0.12 0.13 0.17 0.20 0.22 0.25 0.24 0.23 0.26 0.33 0.39 0.49 0.60 0.81 1.13 1.54 1.74 1.83 1.84 1.86 1.74 1.49 1.23 1.17 1.20 1.12 1.04 0.93 0.87 0.76 0.58 0.54 0.45 0.31 0.17
0.09 0.09 0.08 0.06 0.08 0.06 0.06 0.05 0.05 0.06 0.07 0.08 0.08 0.09 0.09 0.11 0.12 0.11 0.13 0.15 0.14 0.14 0.16 0.25 0.32 0.41 0.54 0.80 1.11 1.45 1.80 1.88 1.86 1.84 1.79 1.66 1.53 1.47 1.45 1.55 1.55 1.42 1.40 1.31 1.04 1.01 0.93 0.65 0.41
0.07 0.10 0.10 0.07 0.05 0.05 0.04 0.03 0.03 0.03 0.05 0.05 0.06 0.07 0.08 0.10 0.11 0.09 0.08 0.09 0.10 0.10 0.11 0.17 0.22 0.37 0.64 0.96 1.27 1.46 1.74 1.86 1.91 1.83 1.83 1.84 1.79 1.67 1.63 1.68 1.75 1.66 1.60 1.60 1.54 1.39 1.34 1.11 0.75
0.06 0.06 0.05 0.05 0.05 0.04 0.04 0.05 0.03 0.04 0.08 0.10 0.12 0.13 0.15 0.17 0.14 0.11 0.08 0.06 0.07 0.07 0.08 0.12 0.18 0.37 0.70 1.02 1.26 1.50 1.84 1.93 1.84 1.87 1.88 1.89 1.88 1.82 1.84 1.80 1.85 1.79 1.69 1.70 1.69 1.53 1.52 1.47 1.14
0.03 0.03 0.03 0.04 0.05 0.04 0.03 0.04 0.04 0.07 0.14 0.20 0.22 0.23 0.23 0.20 0.14 0.11 0.10 0.08 0.08 0.08 0.09 0.16 0.28 0.47 0.71 0.91 1.15 1.49 1.73 1.83 1.89 1.81 1.85 1.86 1.90 1.88 1.87 1.89 1.97 1.91 1.80 1.72 1.81 1.72 1.69 1.57 1.45
0.01 0.02 0.04 0.05 0.07 0.05 0.03 0.07 0.13 0.17 0.18 0.20 0.21 0.22 0.22 0.20 0.16 0.15 0.14 0.14 0.14 0.15 0.20 0.27 0.42 0.57 0.76 0.92 1.10 1.26 1.48 1.62 1.74 1.75 1.73 1.73 1.76 1.82 1.72 1.65 1.72 1.72 1.69 1.66 1.73 1.77 1.79 1.71 1.69
0.01 0.04 0.10 0.13 0.15 0.12 0.07 0.16 0.28 0.23 0.18 0.18 0.19 0.21 0.23 0.24 0.25 0.29 0.30 0.33 0.39 0.42 0.43 0.50 0.59 0.69 0.79 0.86 0.91 0.97 1.10 1.23 1.28 1.37 1.45 1.57 1.56 1.62 1.63 1.52 1.50 1.46 1.39 1.38 1.44 1.47 1.46 1.52 1.61
0.01 0.03 0.10 0.14 0.15 0.15 0.17 0.36 0.40 0.27 0.23 0.22 0.23 0.25 0.29 0.36 0.42 0.52 0.60 0.68 0.73 0.71 0.70 0.76 0.81 0.78 0.75 0.77 0.78 0.80 0.83 0.88 0.93 0.95 0.96 1.09 1.26 1.29 1.34 1.32 1.24 1.26 1.30 1.31 1.32 1.32 1.27 1.20 1.22
0.01 0.03 0.06 0.13 0.12 0.13 0.20 0.42 0.44 0.32 0.31 0.31 0.31 0.33 0.42 0.60 0.70 0.81 0.90 0.92 0.91 0.87 0.82 0.81 0.82 0.79 0.77 0.75 0.70 0.63 0.60 0.61 0.67 0.67 0.70 0.71 0.80 0.83 0.89 0.99 1.00 1.02 1.10 1.17 1.25 1.28 1.22 1.10 1.06
0.03 0.07 0.13 0.26 0.34 0.30 0.31 0.48 0.52 0.44 0.39 0.36 0.41 0.49 0.65 0.91 1.06 1.19 1.26 1.17 1.09 1.07 1.10 0.97 0.86 0.78 0.75 0.71 0.66 0.58 0.50 0.47 0.49 0.51 0.55 0.51 0.51 0.51 0.56 0.65 0.73 0.78 0.88 0.98 1.06 1.11 1.14 1.12 1.07
0.10 0.16 0.24 0.37 0.45 0.57 0.70 0.84 0.68 0.58 0.58 0.65 0.75 0.83 1.00 1.26 1.43 1.52 1.53 1.43 1.22 1.09 1.08 1.00 0.88 0.76 0.64 0.60 0.60 0.57 0.47 0.43 0.42 0.40 0.40 0.34 0.35 0.41 0.45 0.50 0.57 0.60 0.63 0.75 0.92 1.01 1.00 0.98 0.96
0.22 0.37 0.50 0.74 0.74 0.67 0.87 1.09 0.84 0.69 0.71 0.74 0.80 0.92 1.10 1.22 1.30 1.34 1.29 1.29 1.17 1.08 0.99 0.93 0.82 0.68 0.62 0.63 0.62 0.58 0.49 0.43 0.43 0.38 0.35 0.30 0.29 0.31 0.36 0.42 0.49 0.55 0.56 0.58 0.66 0.74 0.75 0.75 0.77

GEFSSGP_prec_meanprecacc_066.txt.gz
Total_Precipitation_Accumulation
0.04 0.15 0.26 0.36 0.53 0.22 0.01 0.00 0.00 0.00 0.00 0.00 0.00 0.00 0.00 0.03 0.13 0.33 0.09 0.00 0.00 0.00 0.01 0.07 0.14 0.11 0.11 0.18 0.27 0.37 0.42 0.52 0.41 0.31 0.24 0.18 0.13 0.15 0.16 0.12 0.15 0.20 0.16 0.13 0.19 0.31 0.35 0.38 0.41
0.08 0.23 0.34 0.55 0.48 0.06 0.01 0.00 0.00 0.00 0.00 0.00 0.00 0.00 0.00 0.00 0.01 0.01 0.01 0.00 0.00 0.00 0.02 0.08 0.12 0.12 0.13 0.21 0.29 0.36 0.42 0.52 0.44 0.31 0.19 0.11 0.11 0.15 0.17 0.27 0.35 0.25 0.12 0.10 0.17 0.31 0.34 0.33 0.40
0.08 0.17 0.37 0.53 0.20 0.03 0.02 0.00 0.00 0.00 0.00 0.00 0.00 0.00 0.00 0.01 0.00 0.00 0.00 0.00 0.00 0.00 0.04 0.12 0.13 0.11 0.14 0.23 0.35 0.41 0.48 0.51 0.43 0.30 0.14 0.09 0.12 0.18 0.28 0.39 0.34 0.17 0.09 0.09 0.14 0.24 0.28 0.25 0.26
0.13 0.23 0.34 0.29 0.10 0.02 0.01 0.00 0.00 0.00 0.00 0.00 0.00 0.00 0.01 0.01 0.01 0.01 0.00 0.00 0.00 0.00 0.03 0.10 0.15 0.12 0.15 0.28 0.44 0.45 0.49 0.53 0.48 0.30 0.15 0.12 0.15 0.16 0.23 0.32 0.28 0.14 0.06 0.05 0.10 0.19 0.25 0.23 0.22
0.11 0.24 0.41 0.26 0.08 0.02 0.00 0.00 0.00 0.00 0.00 0.00 0.00 0.00 0.02 0.02 0.01 0.01 0.00 0.00 0.00 0.01 0.02 0.07 0.13 0.12 0.18 0.32 0.43 0.46 0.51 0.54 0.50 0.30 0.20 0.18 0.17 0.13 0.18 0.22 0.20 0.08 0.03 0.04 0.07 0.14 0.18 0.18 0.21
0.14 0.30 0.55 0.41 0.11 0.01 0.01 0.01 0.01 0.02 0.00 0.01 0.01 0.02 0.03 0.03 0.02 0.01 0.01 0.01 0.01 0.01 0.02 0.05 0.12 0.16 0.21 0.30 0.37 0.41 0.49 0.54 0.49 0.31 0.23 0.21 0.19 0.16 0.16 0.17 0.13 0.05 0.03 0.03 0.04 0.09 0.11 0.12 0.16
0.17 0.38 0.65 0.50 0.22 0.05 0.01 0.01 0.01 0.02 0.00 0.01 0.02 0.02 0.04 0.05 0.04 0.02 0.02 0.03 0.03 0.02 0.02 0.05 0.10 0.11 0.21 0.31 0.35 0.37 0.43 0.48 0.52 0.37 0.26 0.24 0.19 0.13 0.11 0.10 0.06 0.03 0.02 0.02 0.02 0.04 0.05 0.06 0.12
0.08 0.19 0.42 0.41 0.26 0.14 0.04 0.02 0.02 0.02 0.01 0.02 0.03 0.04 0.08 0.09 0.08 0.06 0.06 0.07 0.06 0.05 0.04 0.05 0.08 0.12 0.17 0.23 0.34 0.39 0.43 0.48 0.54 0.42 0.30 0.23 0.14 0.09 0.08 0.04 0.03 0.02 0.02 0.02 0.01 0.02 0.02 0.04 0.11
0.16 0.19 0.42 0.49 0.34 0.21 0.07 0.04 0.04 0.03 0.03 0.03 0.03 0.07 0.08 0.08 0.09 0.10 0.12 0.12 0.10 0.08 0.07 0.07 0.09 0.14 0.18 0.21 0.26 0.39 0.46 0.53 0.55 0.45 0.34 0.25 0.23 0.19 0.14 0.07 0.06 0.03 0.02 0.01 0.02 0.03 0.03 0.03 0.07
0.30 0.37 0.55 0.55 0.31 0.22 0.12 0.09 0.07 0.06 0.06 0.05 0.07 0.11 0.13 0.15 0.17 0.20 0.23 0.26 0.26 0.22 0.14 0.12 0.12 0.12 0.13 0.16 0.29 0.42 0.44 0.44 0.42 0.58 0.49 0.34 0.37 0.33 0.13 0.11 0.08 0.05 0.03 0.02 0.03 0.04 0.02 0.01 0.02
0.26 0.34 0.33 0.39 0.26 0.15 0.11 0.09 0.09 0.10 0.13 0.10 0.11 0.15 0.20 0.25 0.28 0.29 0.32 0.33 0.36 0.33 0.26 0.19 0.16 0.13 0.13 0.21 0.31 0.43 0.55 0.60 0.54 0.53 0.53 0.45 0.32 0.18 0.12 0.13 0.12 0.07 0.05 0.04 0.03 0.01 0.00 0.00 0.01
0.15 0.14 0.12 0.11 0.10 0.10 0.11 0.10 0.11 0.12 0.15 0.13 0.14 0.17 0.24 0.30 0.36 0.37 0.38 0.38 0.38 0.37 0.38 0.33 0.23 0.21 0.18 0.20 0.24 0.30 0.39 0.48 0.50 0.33 0.28 0.33 0.29 0.19 0.13 0.13 0.13 0.10 0.09 0.06 0.03 0.01 0.00 0.00 0.01
0.16 0.12 0.08 0.10 0.11 0.11 0.11 0.12 0.12 0.11 0.15 0.14 0.16 0.22 0.28 0.35 0.41 0.44 0.41 0.40 0.39 0.43 0.48 0.43 0.35 0.32 0.28 0.28 0.25 0.21 0.34 0.44 0.47 0.49 0.35 0.31 0.26 0.20 0.12 0.07 0.08 0.06 0.05 0.05 0.03 0.01 0.01 0.01 0.01
0.09 0.13 0.18 0.18 0.15 0.12 0.11 0.12 0.12 0.16 0.18 0.17 0.17 0.20 0.27 0.35 0.41 0.42 0.41 0.41 0.40 0.43 0.52 0.51 0.49 0.48 0.42 0.34 0.32 0.33 0.38 0.45 0.47 0.55 0.42 0.33 0.28 0.22 0.15 0.10 0.09 0.06 0.05 0.06 0.04 0.01 0.00 0.00 0.01
0.05 0.09 0.12 0.10 0.10 0.10 0.11 0.11 0.13 0.21 0.22 0.19 0.17 0.18 0.22 0.29 0.34 0.36 0.36 0.37 0.40 0.41 0.44 0.44 0.46 0.53 0.52 0.50 0.48 0.47 0.54 0.54 0.57 0.60 0.51 0.40 0.27 0.23 0.22 0.18 0.16 0.14 0.07 0.04 0.03 0.03 0.01 0.00 0.01
0.04 0.07 0.13 0.09 0.08 0.10 0.11 0.11 0.15 0.24 0.22 0.22 0.21 0.21 0.21 0.23 0.28 0.31 0.34 0.34 0.37 0.36 0.37 0.42 0.41 0.47 0.55 0.61 0.64 0.68 0.69 0.72 0.76 0.71 0.62 0.54 0.40 0.33 0.33 0.31 0.29 0.28 0.15 0.08 0.07 0.07 0.04 0.03 0.01
0.12 0.10 0.14 0.14 0.11 0.13 0.15 0.15 0.18 0.23 0.21 0.20 0.20 0.21 0.21 0.23 0.26 0.29 0.31 0.32 0.33 0.34 0.35 0.39 0.43 0.48 0.54 0.60 0.70 0.80 0.87 0.94 1.07 1.02 0.95 0.85 0.66 0.57 0.52 0.53 0.48 0.41 0.35 0.25 0.15 0.11 0.10 0.10 0.08
0.30 0.13 0.10 0.11 0.12 0.13 0.16 0.17 0.17 0.20 0.18 0.16 0.16 0.15 0.18 0.21 0.25 0.28 0.30 0.32 0.34 0.33 0.35 0.39 0.47 0.54 0.63 0.79 1.01 1.23 1.30 1.46 1.69 1.63 1.47 1.27 1.05 0.93 0.91 0.85 0.75 0.68 0.67 0.63 0.37 0.30 0.23 0.19 0.14
0.15 0.10 0.09 0.10 0.11 0.10 0.11 0.12 0.13 0.13 0.12 0.12 0.12 0.12 0.12 0.13 0.17 0.20 0.22 0.25 0.24 0.23 0.27 0.33 0.40 0.49 0.60 0.82 1.14 1.57 1.77 1.88 1.90 1.91 1.81 1.60 1.36 1.30 1.35 1.26 1.19 1.11 1.05 0.92 0.70 0.68 0.57 0.38 0.21
0.09 0.09 0.08 0.06 0.08 0.06 0.06 0.06 0.05 0.06 0.07 0.08 0.08 0.09 0.09 0.11 0.12 0.11 0.13 0.15 0.14 0.14 0.16 0.25 0.32 0.41 0.55 0.81 1.12 1.47 1.82 1.90 1.91 1.90 1.85 1.72 1.60 1.57 1.56 1.67 1.69 1.59 1.58 1.49 1.21 1.20 1.11 0.77 0.48
0.07 0.10 0.10 0.07 0.05 0.05 0.04 0.04 0.03 0.04 0.05 0.06 0.06 0.07 0.08 0.10 0.11 0.09 0.08 0.09 0.10 0.11 0.12 0.17 0.23 0.37 0.65 0.98 1.30 1.48 1.77 1.89 1.95 1.88 1.88 1.91 1.85 1.75 1.74 1.80 1.88 1.81 1.77 1.77 1.74 1.58 1.55 1.30 0.89
0.06 0.06 0.05 0.05 0.05 0.04 0.04 0.05 0.04 0.06 0.10 0.12 0.13 0.13 0.15 0.17 0.14 0.11 0.09 0.07 0.08 0.09 0.10 0.13 0.19 0.38 0.72 1.06 1.31 1.55 1.89 1.98 1.88 1.93 1.96 1.98 1.97 1.93 1.97 1.97 2.01 1.95 1.87 1.87 1.87 1.70 1.71 1.69 1.32
0.03 0.03 0.03 0.04 0.05 0.04 0.03 0.05 0.05 0.08 0.15 0.21 0.23 0.23 0.23 0.20 0.15 0.12 0.10 0.09 0.09 0.10 0.12 0.18 0.31 0.50 0.75 0.95 1.21 1.55 1.79 1.89 1.95 1.90 1.94 1.95 1.99 1.98 2.00 2.05 2.15 2.08 1.98 1.89 2.00 1.92 1.89 1.79 1.68
0.01 0.02 0.04 0.05 0.07 0.06 0.03 0.07 0.13 0.17 0.19 0.21 0.22 0.23 0.23 0.20 0.16 0.16 0.15 0.15 0.15 0.17 0.23 0.31 0.45 0.61 0.81 0.97 1.16 1.33 1.56 1.70 1.84 1.88 1.83 1.83 1.86 1.93 1.82 1.78 1.87 1.89 1.89 1.86 1.92 1.96 1.98 1.89 1.89
0.01 0.04 0.10 0.13 0.16 0.12 0.07 0.16 0.28 0.23 0.18 0.19 0.20 0.21 0.23 0.24 0.26 0.30 0.31 0.34 0.41 0.44 0.46 0.54 0.63 0.74 0.84 0.93 1.00 1.05 1.21 1.35 1.39 1.48 1.58 1.70 1.71 1.75 1.75 1.64 1.64 1.63 1.57 1.57 1.63 1.65 1.63 1.68 1.78
0.01 0.03 0.10 0.15 0.15 0.15 0.17 0.36 0.41 0.27 0.23 0.22 0.23 0.25 0.29 0.37 0.43 0.53 0.61 0.69 0.76 0.75 0.73 0.79 0.84 0.82 0.80 0.84 0.89 0.91 0.96 1.01 1.05 1.08 1.11 1.25 1.42 1.44 1.49 1.49 1.42 1.44 1.48 1.48 1.50 1.49 1.44 1.36 1.38
0.01 0.03 0.06 0.13 0.12 0.13 0.20 0.42 0.44 0.32 0.31 0.31 0.32 0.33 0.42 0.61 0.71 0.81 0.91 0.92 0.93 0.90 0.85 0.85 0.87 0.84 0.81 0.80 0.79 0.75 0.71 0.74 0.82 0.84 0.88 0.93 1.02 1.02 1.05 1.14 1.19 1.21 1.28 1.34 1.43 1.47 1.42 1.29 1.23
0.03 0.07 0.13 0.26 0.34 0.30 0.31 0.48 0.52 0.44 0.39 0.37 0.41 0.49 0.65 0.91 1.06 1.19 1.27 1.17 1.10 1.09 1.13 1.00 0.91 0.84 0.80 0.78 0.78 0.72 0.65 0.65 0.65 0.66 0.72 0.70 0.69 0.68 0.71 0.78 0.87 0.97 1.08 1.17 1.26 1.29 1.32 1.29 1.24
0.10 0.16 0.24 0.37 0.45 0.57 0.70 0.85 0.68 0.58 0.58 0.65 0.75 0.83 1.00 1.26 1.43 1.52 1.53 1.43 1.23 1.10 1.09 1.03 0.92 0.81 0.70 0.68 0.71 0.69 0.62 0.60 0.58 0.55 0.54 0.48 0.49 0.54 0.59 0.62 0.69 0.73 0.78 0.92 1.10 1.17 1.16 1.16 1.13
0.22 0.37 0.50 0.74 0.74 0.67 0.87 1.09 0.84 0.69 0.71 0.74 0.80 0.92 1.10 1.22 1.30 1.34 1.30 1.29 1.18 1.08 0.99 0.95 0.84 0.70 0.64 0.67 0.68 0.68 0.57 0.50 0.52 0.49 0.47 0.42 0.41 0.43 0.46 0.53 0.62 0.67 0.67 0.68 0.77 0.86 0.89 0.91 0.92

GEFSSGP_prec_meanprecacc_072.txt.gz
Total_Precipitation_Accumulation
0.07 0.22 0.39 0.48 0.64 0.26 0.03 0.01 0.00 0.00 0.00 0.00 0.00 0.00 0.01 0.04 0.17 0.36 0.12 0.05 0.03 0.01 0.01 0.07 0.14 0.11 0.11 0.18 0.27 0.37 0.42 0.52 0.41 0.31 0.24 0.18 0.13 0.15 0.16 0.12 0.15 0.20 0.16 0.13 0.19 0.31 0.35 0.38 0.41
0.17 0.41 0.51 0.74 0.57 0.08 0.03 0.01 0.01 0.00 0.00 0.00 0.00 0.00 0.00 0.01 0.01 0.03 0.08 0.09 0.02 0.01 0.02 0.08 0.12 0.12 0.13 0.21 0.29 0.36 0.43 0.52 0.44 0.31 0.19 0.11 0.11 0.15 0.17 0.27 0.35 0.25 0.12 0.10 0.17 0.31 0.34 0.33 0.41
0.21 0.38 0.58 0.69 0.25 0.05 0.06 0.03 0.02 0.01 0.00 0.00 0.00 0.00 0.01 0.04 0.01 0.02 0.06 0.05 0.02 0.01 0.04 0.12 0.14 0.11 0.14 0.23 0.36 0.41 0.48 0.51 0.43 0.30 0.14 0.09 0.12 0.18 0.28 0.39 0.34 0.18 0.09 0.09 0.14 0.24 0.28 0.25 0.27
0.27 0.49 0.62 0.41 0.14 0.07 0.06 0.05 0.03 0.02 0.01 0.00 0.00 0.00 0.03 0.04 0.02 0.04 0.05 0.05 0.03 0.02 0.04 0.11 0.16 0.12 0.16 0.29 0.44 0.45 0.49 0.53 0.48 0.30 0.15 0.12 0.15 0.16 0.23 0.32 0.28 0.14 0.06 0.05 0.10 0.19 0.25 0.23 0.22
0.25 0.49 0.60 0.36 0.15 0.11 0.10 0.08 0.04 0.02 0.02 0.02 0.01 0.03 0.09 0.09 0.06 0.06 0.08 0.07 0.05 0.05 0.04 0.09 0.15 0.14 0.19 0.33 0.44 0.47 0.52 0.54 0.50 0.30 0.20 0.18 0.17 0.13 0.18 0.22 0.20 0.08 0.03 0.04 0.07 0.14 0.18 0.18 0.21
0.29 0.54 0.77 0.60 0.33 0.18 0.16 0.12 0.06 0.07 0.04 0.05 0.05 0.07 0.11 0.13 0.11 0.11 0.11 0.10 0.11 0.11 0.08 0.09 0.17 0.21 0.25 0.33 0.39 0.43 0.50 0.54 0.50 0.31 0.23 0.21 0.19 0.16 0.16 0.17 0.13 0.05 0.03 0.03 0.04 0.09 0.11 0.12 0.17
0.33 0.59 0.83 0.68 0.46 0.35 0.27 0.12 0.08 0.08 0.06 0.08 0.11 0.11 0.12 0.12 0.12 0.12 0.15 0.17 0.20 0.19 0.17 0.16 0.20 0.20 0.30 0.39 0.42 0.42 0.47 0.51 0.54 0.39 0.28 0.25 0.20 0.13 0.11 0.10 0.06 0.03 0.02 0.02 0.02 0.04 0.05 0.06 0.12
0.14 0.30 0.55 0.59 0.48 0.40 0.27 0.10 0.08 0.06 0.05 0.06 0.10 0.14 0.21 0.20 0.18 0.17 0.17 0.19 0.20 0.21 0.22 0.21 0.24 0.29 0.31 0.35 0.46 0.50 0.51 0.54 0.59 0.45 0.32 0.25 0.15 0.10 0.08 0.04 0.03 0.02 0.02 0.02 0.01 0.02 0.02 0.04 0.11
0.22 0.29 0.60 0.81 0.62 0.44 0.23 0.12 0.08 0.08 0.07 0.06 0.07 0.15 0.21 0.21 0.21 0.21 0.23 0.22 0.22 0.19 0.20 0.22 0.28 0.35 0.39 0.37 0.40 0.54 0.60 0.65 0.64 0.51 0.40 0.28 0.24 0.20 0.15 0.09 0.08 0.04 0.02 0.02 0.02 0.03 0.03 0.03 0.08
0.37 0.49 0.76 0.79 0.45 0.31 0.20 0.15 0.12 0.11 0.10 0.09 0.12 0.18 0.25 0.29 0.30 0.32 0.34 0.35 0.35 0.32 0.26 0.25 0.25 0.25 0.30 0.37 0.47 0.59 0.57 0.54 0.51 0.64 0.56 0.40 0.40 0.35 0.16 0.14 0.13 0.09 0.05 0.03 0.03 0.04 0.02 0.01 0.02
0.31 0.42 0.44 0.48 0.31 0.19 0.14 0.12 0.12 0.13 0.16 0.13 0.16 0.20 0.27 0.35 0.40 0.42 0.44 0.45 0.48 0.44 0.37 0.29 0.25 0.24 0.27 0.36 0.49 0.60 0.70 0.76 0.69 0.64 0.62 0.54 0.41 0.26 0.17 0.18 0.16 0.12 0.09 0.06 0.03 0.01 0.00 0.00 0.01
0.19 0.20 0.19 0.16 0.14 0.13 0.14 0.12 0.12 0.13 0.16 0.15 0.16 0.21 0.29 0.35 0.42 0.44 0.46 0.47 0.46 0.46 0.47 0.40 0.30 0.29 0.28 0.33 0.38 0.44 0.55 0.66 0.66 0.49 0.43 0.47 0.46 0.33 0.22 0.19 0.17 0.13 0.11 0.07 0.04 0.01 0.01 0.01 0.02
0.20 0.16 0.12 0.14 0.15 0.14 0.13 0.13 0.12 0.12 0.16 0.16 0.19 0.25 0.31 0.38 0.44 0.46 0.44 0.43 0.42 0.46 0.52 0.48 0.40 0.37 0.35 0.37 0.35 0.33 0.49 0.63 0.68 0.65 0.50 0.45 0.46 0.40 0.28 0.19 0.18 0.14 0.09 0.08 0.06 0.02 0.02 0.02 0.02
0.12 0.16 0.20 0.20 0.17 0.14 0.12 0.12 0.12 0.18 0.21 0.19 0.19 0.22 0.29 0.37 0.42 0.44 0.42 0.41 0.41 0.44 0.53 0.53 0.51 0.50 0.45 0.39 0.39 0.39 0.46 0.55 0.59 0.69 0.66 0.58 0.51 0.42 0.32 0.25 0.22 0.19 0.15 0.14 0.09 0.03 0.03 0.03 0.01
0.06 0.11 0.16 0.15 0.15 0.13 0.13 0.13 0.14 0.23 0.24 0.21 0.18 0.19 0.23 0.30 0.34 0.36 0.37 0.37 0.41 0.41 0.44 0.45 0.46 0.53 0.53 0.51 0.50 0.50 0.58 0.60 0.65 0.69 0.67 0.70 0.57 0.45 0.41 0.35 0.31 0.28 0.23 0.18 0.11 0.07 0.04 0.02 0.02
0.07 0.13 0.22 0.17 0.16 0.18 0.19 0.16 0.16 0.25 0.24 0.22 0.22 0.22 0.21 0.24 0.28 0.31 0.34 0.34 0.37 0.36 0.37 0.42 0.41 0.47 0.55 0.61 0.64 0.69 0.71 0.74 0.80 0.76 0.71 0.70 0.62 0.56 0.58 0.52 0.47 0.45 0.32 0.23 0.19 0.15 0.09 0.06 0.04
0.18 0.18 0.22 0.20 0.15 0.17 0.19 0.17 0.18 0.24 0.21 0.20 0.20 0.21 0.21 0.23 0.26 0.29 0.31 0.32 0.33 0.34 0.35 0.39 0.43 0.49 0.54 0.60 0.71 0.81 0.88 0.95 1.09 1.05 0.99 0.93 0.80 0.79 0.82 0.79 0.72 0.63 0.56 0.43 0.29 0.23 0.19 0.16 0.12
0.32 0.14 0.11 0.12 0.13 0.14 0.17 0.17 0.18 0.20 0.18 0.16 0.16 0.15 0.18 0.21 0.25 0.28 0.30 0.32 0.34 0.33 0.35 0.39 0.47 0.54 0.63 0.79 1.01 1.23 1.31 1.47 1.70 1.65 1.50 1.32 1.13 1.07 1.14 1.07 0.95 0.89 0.91 0.82 0.55 0.46 0.36 0.29 0.21
0.15 0.10 0.09 0.10 0.12 0.11 0.11 0.12 0.13 0.13 0.12 0.12 0.12 0.12 0.12 0.13 0.17 0.20 0.22 0.25 0.24 0.23 0.27 0.34 0.40 0.49 0.60 0.82 1.14 1.57 1.78 1.89 1.90 1.92 1.83 1.63 1.41 1.40 1.51 1.44 1.36 1.28 1.21 1.06 0.85 0.84 0.72 0.49 0.30
0.09 0.09 0.08 0.06 0.08 0.06 0.06 0.06 0.06 0.06 0.07 0.08 0.08 0.09 0.09 0.11 0.12 0.11 0.13 0.15 0.14 0.14 0.17 0.26 0.32 0.42 0.55 0.81 1.13 1.48 1.83 1.91 1.92 1.91 1.87 1.75 1.63 1.63 1.65 1.79 1.83 1.74 1.74 1.65 1.35 1.33 1.24 0.89 0.58
0.07 0.10 0.10 0.07 0.05 0.05 0.04 0.04 0.04 0.04 0.05 0.06 0.06 0.07 0.08 0.10 0.11 0.09 0.08 0.09 0.10 0.11 0.12 0.18 0.24 0.38 0.66 0.99 1.30 1.49 1.78 1.90 1.95 1.89 1.90 1.94 1.89 1.79 1.79 1.88 1.98 1.95 1.93 1.92 1.88 1.71 1.68 1.42 0.99
0.06 0.06 0.05 0.05 0.05 0.04 0.04 0.05 0.04 0.06 0.10 0.12 0.13 0.13 0.15 0.17 0.14 0.12 0.09 0.07 0.08 0.09 0.11 0.14 0.20 0.39 0.73 1.07 1.33 1.55 1.90 2.00 1.91 1.95 1.97 2.00 2.02 1.97 2.01 2.02 2.08 2.06 2.01 2.02 2.01 1.84 1.83 1.81 1.43
0.03 0.03 0.03 0.04 0.05 0.04 0.03 0.05 0.05 0.08 0.15 0.21 0.23 0.23 0.23 0.20 0.15 0.12 0.10 0.09 0.10 0.10 0.13 0.19 0.32 0.51 0.76 0.97 1.22 1.57 1.81 1.91 2.00 1.96 1.99 1.99 2.03 2.03 2.05 2.10 2.22 2.19 2.09 2.03 2.15 2.08 2.01 1.89 1.78
0.01 0.02 0.04 0.05 0.07 0.06 0.03 0.07 0.13 0.17 0.19 0.21 0.22 0.23 0.23 0.20 0.16 0.16 0.15 0.15 0.16 0.18 0.24 0.32 0.47 0.62 0.82 0.98 1.18 1.37 1.61 1.74 1.89 1.99 1.92 1.90 1.93 2.00 1.88 1.83 1.94 1.97 1.98 1.96 2.05 2.12 2.15 2.05 2.03
0.01 0.04 0.10 0.13 0.16 0.12 0.07 0.16 0.28 0.23 0.18 0.19 0.20 0.21 0.23 0.24 0.26 0.30 0.31 0.34 0.41 0.44 0.47 0.55 0.64 0.75 0.85 0.95 1.03 1.09 1.26 1.41 1.46 1.60 1.69 1.79 1.81 1.85 1.84 1.74 1.71 1.69 1.64 1.66 1.74 1.78 1.77 1.84 1.92
0.01 0.03 0.10 0.15 0.15 0.15 0.17 0.36 0.41 0.27 0.23 0.22 0.23 0.25 0.29 0.37 0.43 0.53 0.61 0.69 0.76 0.75 0.74 0.80 0.85 0.83 0.81 0.86 0.92 0.94 1.00 1.07 1.13 1.16 1.20 1.36 1.52 1.56 1.62 1.60 1.51 1.52 1.57 1.56 1.60 1.61 1.59 1.53 1.55
0.01 0.03 0.06 0.13 0.12 0.13 0.20 0.43 0.44 0.32 0.31 0.31 0.32 0.33 0.42 0.61 0.71 0.81 0.91 0.92 0.93 0.90 0.85 0.85 0.88 0.85 0.83 0.82 0.82 0.78 0.75 0.79 0.88 0.90 0.96 1.01 1.11 1.13 1.19 1.27 1.29 1.32 1.39 1.44 1.55 1.59 1.58 1.47 1.41
0.03 0.07 0.13 0.26 0.34 0.30 0.31 0.48 0.52 0.44 0.39 0.37 0.41 0.49 0.65 0.91 1.06 1.19 1.27 1.17 1.10 1.09 1.13 1.01 0.92 0.85 0.81 0.81 0.80 0.74 0.68 0.70 0.72 0.73 0.81 0.79 0.78 0.78 0.83 0.93 1.04 1.16 1.27 1.37 1.44 1.46 1.53 1.50 1.44
0.10 0.16 0.24 0.37 0.45 0.57 0.70 0.85 0.68 0.58 0.58 0.65 0.75 0.83 1.00 1.26 1.43 1.52 1.53 1.43 1.23 1.10 1.09 1.03 0.92 0.81 0.71 0.70 0.74 0.73 0.66 0.66 0.67 0.65 0.62 0.58 0.59 0.63 0.71 0.74 0.84 0.92 1.00 1.18 1.35 1.39 1.41 1.41 1.37
0.22 0.37 0.50 0.74 0.74 0.67 0.87 1.09 0.84 0.69 0.71 0.74 0.80 0.92 1.10 1.22 1.30 1.34 1.30 1.29 1.18 1.08 0.99 0.95 0.84 0.71 0.65 0.69 0.70 0.72 0.62 0.56 0.58 0.56 0.56 0.51 0.49 0.51 0.56 0.65 0.77 0.85 0.85 0.88 1.01 1.07 1.08 1.11 1.15

GEFSSGP_prec_meanprecacc_078.txt.gz
Total_Precipitation_Accumulation
0.12 0.31 0.50 0.57 0.71 0.29 0.05 0.02 0.01 0.01 0.00 0.00 0.00 0.00 0.01 0.06 0.18 0.37 0.13 0.06 0.03 0.01 0.01 0.08 0.16 0.14 0.12 0.19 0.29 0.38 0.43 0.52 0.41 0.32 0.24 0.18 0.13 0.15 0.16 0.12 0.15 0.20 0.16 0.13 0.19 0.31 0.36 0.39 0.42
0.26 0.57 0.65 0.86 0.62 0.10 0.06 0.06 0.06 0.04 0.01 0.01 0.01 0.01 0.02 0.03 0.03 0.06 0.11 0.11 0.03 0.01 0.03 0.09 0.14 0.13 0.15 0.22 0.30 0.37 0.43 0.53 0.44 0.31 0.19 0.12 0.11 0.15 0.17 0.27 0.35 0.25 0.13 0.10 0.17 0.31 0.35 0.34 0.41
0.33 0.58 0.71 0.76 0.29 0.09 0.12 0.13 0.11 0.07 0.03 0.02 0.01 0.00 0.02 0.06 0.05 0.07 0.10 0.08 0.04 0.02 0.05 0.14 0.18 0.15 0.17 0.26 0.38 0.42 0.50 0.52 0.44 0.31 0.15 0.10 0.13 0.18 0.28 0.39 0.34 0.18 0.10 0.09 0.15 0.25 0.29 0.26 0.27
0.37 0.66 0.72 0.46 0.21 0.17 0.19 0.21 0.14 0.08 0.03 0.02 0.01 0.02 0.05 0.07 0.08 0.10 0.13 0.11 0.08 0.07 0.08 0.17 0.24 0.18 0.21 0.33 0.48 0.49 0.52 0.55 0.49 0.32 0.16 0.13 0.15 0.17 0.23 0.32 0.28 0.14 0.06 0.06 0.10 0.20 0.26 0.24 0.22
0.32 0.57 0.66 0.42 0.24 0.26 0.25 0.22 0.11 0.08 0.05 0.04 0.02 0.04 0.12 0.14 0.15 0.18 0.24 0.29 0.27 0.18 0.14 0.18 0.25 0.22 0.26 0.40 0.51 0.53 0.56 0.58 0.53 0.33 0.22 0.20 0.19 0.14 0.19 0.22 0.20 0.08 0.04 0.04 0.07 0.15 0.19 0.19 0.22
0.35 0.58 0.82 0.68 0.44 0.33 0.28 0.23 0.12 0.12 0.08 0.08 0.08 0.11 0.15 0.20 0.25 0.27 0.29 0.32 0.35 0.35 0.29 0.25 0.31 0.33 0.35 0.41 0.46 0.50 0.56 0.59 0.53 0.34 0.26 0.24 0.21 0.18 0.17 0.18 0.14 0.05 0.04 0.03 0.05 0.09 0.12 0.13 0.17
0.38 0.61 0.86 0.73 0.53 0.48 0.39 0.22 0.16 0.14 0.12 0.12 0.14 0.18 0.18 0.20 0.26 0.35 0.41 0.42 0.47 0.47 0.45 0.40 0.39 0.38 0.45 0.53 0.55 0.53 0.56 0.58 0.60 0.44 0.32 0.29 0.23 0.16 0.13 0.11 0.06 0.03 0.03 0.02 0.02 0.05 0.06 0.07 0.13
0.19 0.33 0.58 0.62 0.52 0.48 0.37 0.18 0.14 0.11 0.11 0.09 0.13 0.19 0.26 0.28 0.32 0.40 0.45 0.46 0.47 0.48 0.49 0.47 0.46 0.52 0.51 0.52 0.66 0.70 0.67 0.68 0.70 0.55 0.40 0.33 0.21 0.14 0.12 0.07 0.05 0.03 0.03 0.02 0.01 0.02 0.02 0.05 0.11
0.27 0.34 0.65 0.85 0.65 0.48 0.29 0.17 0.11 0.10 0.09 0.08 0.09 0.17 0.24 0.27 0.34 0.39 0.45 0.45 0.47 0.44 0.45 0.47 0.49 0.58 0.62 0.57 0.61 0.82 0.84 0.85 0.80 0.65 0.54 0.42 0.32 0.25 0.18 0.12 0.11 0.07 0.04 0.04 0.04 0.04 0.04 0.04 0.08
0.43 0.53 0.80 0.82 0.48 0.34 0.24 0.19 0.14 0.12 0.11 0.09 0.13 0.20 0.29 0.35 0.42 0.45 0.47 0.50 0.51 0.52 0.47 0.46 0.45 0.48 0.53 0.57 0.69 0.81 0.78 0.75 0.72 0.84 0.72 0.54 0.49 0.40 0.18 0.16 0.17 0.15 0.10 0.08 0.07 0.06 0.04 0.02 0.02
0.34 0.45 0.45 0.50 0.33 0.21 0.17 0.15 0.14 0.15 0.17 0.14 0.16 0.21 0.30 0.40 0.48 0.51 0.54 0.53 0.57 0.55 0.49 0.43 0.39 0.38 0.43 0.54 0.69 0.79 0.89 0.96 0.89 0.84 0.81 0.71 0.54 0.33 0.21 0.19 0.19 0.17 0.15 0.10 0.06 0.03 0.01 0.00 0.01
0.21 0.22 0.21 0.18 0.15 0.15 0.16 0.14 0.13 0.14 0.17 0.15 0.17 0.22 0.31 0.37 0.45 0.48 0.50 0.50 0.49 0.50 0.51 0.46 0.35 0.35 0.36 0.43 0.52 0.60 0.71 0.82 0.84 0.68 0.62 0.64 0.59 0.43 0.28 0.23 0.21 0.17 0.16 0.12 0.06 0.03 0.02 0.01 0.02
0.21 0.18 0.14 0.16 0.17 0.16 0.15 0.16 0.14 0.13 0.17 0.17 0.21 0.27 0.32 0.39 0.45 0.47 0.44 0.43 0.42 0.47 0.53 0.49 0.41 0.39 0.37 0.40 0.42 0.42 0.60 0.76 0.82 0.82 0.69 0.63 0.61 0.55 0.42 0.29 0.26 0.21 0.18 0.15 0.11 0.06 0.04 0.05 0.04
0.13 0.17 0.21 0.21 0.18 0.15 0.13 0.14 0.13 0.18 0.21 0.19 0.19 0.23 0.29 0.37 0.42 0.44 0.42 0.42 0.41 0.44 0.53 0.53 0.51 0.51 0.46 0.40 0.40 0.42 0.50 0.61 0.68 0.80 0.80 0.73 0.63 0.57 0.50 0.39 0.36 0.32 0.28 0.24 0.16 0.08 0.08 0.06 0.03
0.08 0.12 0.17 0.17 0.16 0.15 0.14 0.13 0.14 0.23 0.24 0.21 0.18 0.19 0.23 0.30 0.34 0.36 0.37 0.37 0.41 0.41 0.44 0.45 0.46 0.54 0.54 0.52 0.50 0.50 0.59 0.61 0.68 0.73 0.73 0.78 0.67 0.57 0.56 0.53 0.48 0.43 0.40 0.34 0.25 0.17 0.11 0.08 0.05
0.10 0.15 0.24 0.19 0.18 0.19 0.19 0.16 0.16 0.25 0.24 0.22 0.22 0.22 0.21 0.24 0.28 0.31 0.34 0.34 0.37 0.36 0.37 0.42 0.41 0.47 0.56 0.61 0.64 0.69 0.71 0.75 0.81 0.77 0.73 0.74 0.68 0.63 0.69 0.66 0.62 0.59 0.47 0.39 0.36 0.30 0.21 0.15 0.10
0.20 0.19 0.22 0.21 0.16 0.18 0.20 0.17 0.18 0.24 0.21 0.20 0.20 0.21 0.21 0.23 0.26 0.29 0.31 0.32 0.33 0.34 0.35 0.39 0.43 0.49 0.54 0.60 0.71 0.81 0.88 0.96 1.09 1.05 1.00 0.94 0.83 0.84 0.89 0.89 0.83 0.78 0.71 0.59 0.46 0.39 0.35 0.30 0.22
0.33 0.14 0.12 0.12 0.14 0.15 0.17 0.18 0.18 0.20 0.18 0.16 0.16 0.15 0.18 0.21 0.25 0.28 0.30 0.32 0.34 0.33 0.35 0.39 0.47 0.54 0.63 0.79 1.01 1.23 1.31 1.47 1.70 1.65 1.50 1.32 1.15 1.10 1.18 1.13 1.05 1.03 1.04 0.97 0.71 0.63 0.55 0.46 0.35
0.15 0.10 0.09 0.10 0.12 0.11 0.11 0.12 0.13 0.13 0.12 0.12 0.12 0.12 0.12 0.13 0.17 0.20 0.22 0.25 0.24 0.23 0.27 0.34 0.40 0.50 0.60 0.82 1.14 1.58 1.79 1.89 1.91 1.93 1.84 1.64 1.42 1.42 1.54 1.49 1.44 1.39 1.31 1.19 1.02 1.02 0.90 0.66 0.46
0.09 0.09 0.08 0.06 0.08 0.07 0.06 0.06 0.06 0.06 0.07 0.08 0.08 0.09 0.09 0.11 0.12 0.11 0.13 0.15 0.14 0.14 0.17 0.26 0.33 0.42 0.55 0.82 1.13 1.48 1.83 1.91 1.92 1.92 1.87 1.75 1.64 1.64 1.67 1.82 1.87 1.81 1.83 1.76 1.50 1.49 1.39 1.06 0.75
0.07 0.10 0.10 0.07 0.05 0.05 0.04 0.04 0.04 0.04 0.05 0.06 0.06 0.07 0.08 0.10 0.11 0.09 0.08 0.09 0.10 0.11 0.12 0.18 0.24 0.38 0.66 0.99 1.30 1.49 1.78 1.90 1.95 1.89 1.90 1.94 1.89 1.79 1.80 1.89 2.00 1.99 2.01 2.03 2.01 1.86 1.83 1.58 1.16
0.06 0.06 0.05 0.05 0.05 0.04 0.04 0.05 0.04 0.06 0.10 0.12 0.13 0.13 0.15 0.17 0.14 0.12 0.09 0.07 0.08 0.09 0.11 0.14 0.20 0.39 0.73 1.07 1.33 1.56 1.91 2.01 1.94 1.97 1.98 2.01 2.03 1.99 2.03 2.03 2.10 2.10 2.07 2.10 2.14 2.01 2.00 1.98 1.60
0.03 0.03 0.03 0.04 0.05 0.04 0.03 0.05 0.05 0.08 0.15 0.21 0.23 0.23 0.23 0.20 0.15 0.12 0.10 0.09 0.10 0.10 0.13 0.19 0.33 0.51 0.76 0.97 1.23 1.57 1.81 1.93 2.06 2.01 2.00 2.01 2.05 2.05 2.07 2.12 2.24 2.22 2.13 2.09 2.24 2.21 2.17 2.05 1.92
0.01 0.02 0.04 0.05 0.07 0.06 0.03 0.07 0.13 0.17 0.19 0.21 0.22 0.23 0.23 0.20 0.16 0.16 0.15 0.15 0.16 0.18 0.24 0.33 0.48 0.63 0.83 1.00 1.19 1.38 1.63 1.77 1.92 2.02 1.94 1.93 1.96 2.03 1.92 1.86 1.97 2.01 2.01 2.00 2.11 2.24 2.30 2.21 2.19
0.01 0.04 0.10 0.13 0.16 0.12 0.07 0.16 0.28 0.23 0.18 0.19 0.20 0.21 0.23 0.24 0.26 0.30 0.31 0.34 0.41 0.44 0.47 0.55 0.65 0.75 0.86 0.95 1.04 1.10 1.27 1.43 1.49 1.63 1.72 1.82 1.84 1.88 1.88 1.77 1.75 1.72 1.67 1.70 1.79 1.86 1.90 1.98 2.10
0.01 0.03 0.10 0.15 0.15 0.15 0.17 0.36 0.41 0.27 0.23 0.22 0.23 0.25 0.29 0.37 0.43 0.53 0.61 0.69 0.76 0.75 0.74 0.80 0.85 0.84 0.82 0.87 0.93 0.95 1.01 1.09 1.15 1.18 1.23 1.38 1.55 1.59 1.65 1.63 1.56 1.56 1.60 1.60 1.65 1.66 1.66 1.64 1.68
0.01 0.03 0.06 0.13 0.12 0.13 0.20 0.43 0.44 0.32 0.31 0.31 0.32 0.33 0.42 0.61 0.71 0.81 0.91 0.92 0.93 0.90 0.85 0.86 0.88 0.86 0.84 0.84 0.83 0.79 0.77 0.81 0.90 0.92 0.98 1.03 1.12 1.15 1.22 1.30 1.33 1.36 1.42 1.47 1.57 1.63 1.63 1.55 1.50
0.03 0.07 0.13 0.26 0.34 0.30 0.31 0.48 0.52 0.44 0.39 0.37 0.41 0.49 0.65 0.91 1.06 1.19 1.27 1.17 1.10 1.09 1.13 1.01 0.92 0.85 0.82 0.82 0.81 0.75 0.70 0.72 0.74 0.75 0.82 0.80 0.81 0.81 0.86 0.97 1.09 1.21 1.32 1.41 1.48 1.51 1.58 1.58 1.53
0.10 0.16 0.24 0.37 0.45 0.57 0.70 0.85 0.68 0.58 0.58 0.65 0.75 0.83 1.00 1.26 1.43 1.52 1.53 1.43 1.23 1.10 1.09 1.03 0.92 0.81 0.71 0.70 0.75 0.74 0.67 0.67 0.69 0.67 0.64 0.60 0.62 0.66 0.75 0.79 0.89 0.99 1.09 1.26 1.43 1.47 1.49 1.49 1.46
0.22 0.37 0.50 0.74 0.74 0.67 0.87 1.09 0.84 0.69 0.71 0.74 0.80 0.92 1.10 1.22 1.30 1.34 1.30 1.29 1.18 1.08 0.99 0.95 0.84 0.71 0.65 0.69 0.71 0.72 0.63 0.58 0.60 0.58 0.58 0.52 0.50 0.53 0.60 0.69 0.82 0.93 0.96 0.97 1.09 1.16 1.18 1.19 1.24

GEFSSGP_prec_meanprecacc_084.txt.gz
Total_Precipitation_Accumulation
0.13 0.34 0.55 0.63 0.74 0.32 0.07 0.06 0.05 0.05 0.06 0.02 0.02 0.04 0.07 0.12 0.24 0.42 0.18 0.10 0.05 0.02 0.02 0.10 0.20 0.18 0.17 0.23 0.33 0.43 0.47 0.55 0.43 0.34 0.27 0.19 0.14 0.16 0.17 0.13 0.16 0.21 0.16 0.13 0.20 0.32 0.36 0.40 0.42
0.27 0.60 0.69 0.91 0.65 0.13 0.10 0.12 0.13 0.11 0.06 0.04 0.03 0.03 0.04 0.05 0.04 0.09 0.17 0.17 0.05 0.02 0.04 0.12 0.19 0.20 0.23 0.31 0.36 0.44 0.50 0.59 0.50 0.36 0.23 0.13 0.12 0.16 0.18 0.28 0.35 0.25 0.13 0.11 0.18 0.32 0.35 0.34 0.42
0.34 0.59 0.73 0.80 0.34 0.14 0.18 0.21 0.21 0.14 0.06 0.05 0.04 0.03 0.05 0.08 0.08 0.13 0.18 0.13 0.06 0.04 0.10 0.22 0.30 0.27 0.30 0.39 0.48 0.51 0.58 0.60 0.51 0.36 0.18 0.12 0.14 0.19 0.28 0.40 0.34 0.18 0.10 0.10 0.15 0.26 0.30 0.26 0.27
0.38 0.68 0.73 0.49 0.26 0.22 0.25 0.27 0.19 0.14 0.07 0.04 0.03 0.04 0.08 0.09 0.13 0.19 0.21 0.19 0.13 0.11 0.13 0.25 0.37 0.32 0.35 0.47 0.61 0.60 0.62 0.65 0.58 0.39 0.22 0.17 0.18 0.19 0.24 0.33 0.29 0.14 0.07 0.06 0.11 0.21 0.26 0.24 0.23
0.33 0.59 0.68 0.46 0.30 0.30 0.28 0.24 0.15 0.13 0.10 0.07 0.04 0.07 0.16 0.18 0.21 0.26 0.32 0.37 0.33 0.25 0.20 0.25 0.36 0.35 0.40 0.54 0.64 0.66 0.69 0.70 0.65 0.44 0.32 0.27 0.24 0.18 0.22 0.24 0.21 0.09 0.05 0.05 0.09 0.16 0.20 0.20 0.22
0.36 0.59 0.85 0.73 0.50 0.38 0.31 0.24 0.14 0.15 0.12 0.11 0.10 0.14 0.20 0.26 0.33 0.37 0.36 0.41 0.44 0.45 0.38 0.32 0.42 0.47 0.48 0.55 0.61 0.65 0.70 0.73 0.67 0.46 0.37 0.33 0.29 0.24 0.22 0.22 0.17 0.08 0.07 0.06 0.08 0.12 0.15 0.14 0.18
0.39 0.63 0.89 0.75 0.58 0.55 0.43 0.23 0.18 0.16 0.16 0.15 0.16 0.24 0.23 0.26 0.32 0.46 0.51 0.52 0.58 0.58 0.55 0.48 0.47 0.51 0.60 0.68 0.71 0.70 0.72 0.74 0.76 0.59 0.47 0.42 0.33 0.25 0.21 0.18 0.13 0.09 0.07 0.06 0.06 0.07 0.07 0.08 0.14
0.20 0.34 0.60 0.65 0.57 0.55 0.40 0.19 0.14 0.12 0.12 0.10 0.14 0.24 0.30 0.33 0.36 0.46 0.55 0.57 0.58 0.60 0.60 0.56 0.58 0.65 0.63 0.66 0.83 0.89 0.87 0.87 0.89 0.73 0.57 0.49 0.34 0.24 0.21 0.14 0.12 0.10 0.09 0.08 0.07 0.06 0.05 0.06 0.13
0.27 0.36 0.67 0.87 0.69 0.52 0.30 0.18 0.12 0.10 0.10 0.09 0.10 0.18 0.25 0.29 0.37 0.45 0.54 0.56 0.59 0.56 0.56 0.56 0.60 0.71 0.76 0.71 0.80 1.05 1.06 1.06 1.00 0.85 0.71 0.58 0.45 0.35 0.28 0.19 0.20 0.14 0.12 0.14 0.14 0.12 0.08 0.07 0.10
0.44 0.55 0.81 0.83 0.49 0.35 0.25 0.20 0.14 0.12 0.11 0.10 0.13 0.20 0.29 0.36 0.45 0.49 0.52 0.55 0.57 0.59 0.55 0.54 0.53 0.58 0.66 0.72 0.83 0.97 0.95 0.93 0.91 1.05 0.94 0.79 0.70 0.55 0.28 0.25 0.28 0.25 0.21 0.19 0.18 0.17 0.10 0.05 0.04
0.35 0.46 0.46 0.50 0.33 0.21 0.18 0.15 0.14 0.15 0.17 0.14 0.17 0.22 0.30 0.41 0.49 0.53 0.56 0.55 0.59 0.57 0.52 0.47 0.44 0.43 0.49 0.62 0.78 0.87 0.98 1.07 1.02 0.98 0.95 0.90 0.75 0.53 0.35 0.33 0.31 0.27 0.25 0.19 0.17 0.14 0.09 0.06 0.04
0.21 0.23 0.21 0.18 0.15 0.15 0.17 0.14 0.14 0.15 0.17 0.15 0.17 0.22 0.31 0.37 0.45 0.48 0.51 0.51 0.49 0.50 0.52 0.46 0.36 0.36 0.37 0.46 0.54 0.65 0.77 0.89 0.92 0.76 0.72 0.77 0.74 0.60 0.43 0.38 0.34 0.29 0.27 0.24 0.20 0.16 0.11 0.08 0.06
0.22 0.19 0.15 0.17 0.17 0.16 0.15 0.16 0.14 0.13 0.17 0.17 0.21 0.27 0.32 0.39 0.45 0.47 0.44 0.43 0.42 0.47 0.53 0.49 0.41 0.39 0.37 0.41 0.43 0.44 0.63 0.79 0.89 0.89 0.75 0.71 0.70 0.66 0.55 0.41 0.38 0.32 0.29 0.26 0.24 0.19 0.15 0.13 0.09
0.16 0.19 0.22 0.22 0.19 0.16 0.14 0.14 0.13 0.18 0.21 0.19 0.19 0.23 0.29 0.37 0.42 0.44 0.42 0.42 0.41 0.44 0.53 0.53 0.51 0.51 0.46 0.40 0.40 0.42 0.51 0.63 0.71 0.85 0.86 0.79 0.69 0.64 0.62 0.52 0.49 0.46 0.42 0.38 0.30 0.22 0.22 0.18 0.11
0.09 0.14 0.19 0.17 0.17 0.16 0.15 0.14 0.14 0.23 0.24 0.21 0.18 0.19 0.23 0.30 0.34 0.36 0.37 0.37 0.41 0.42 0.44 0.45 0.46 0.54 0.54 0.52 0.50 0.50 0.59 0.61 0.68 0.74 0.75 0.81 0.71 0.62 0.65 0.64 0.61 0.57 0.56 0.51 0.41 0.31 0.28 0.22 0.14
0.12 0.18 0.26 0.20 0.18 0.19 0.20 0.17 0.17 0.25 0.24 0.23 0.22 0.22 0.21 0.24 0.28 0.31 0.34 0.34 0.37 0.36 0.37 0.42 0.41 0.47 0.56 0.61 0.64 0.69 0.71 0.75 0.81 0.78 0.75 0.76 0.70 0.66 0.73 0.72 0.71 0.72 0.59 0.53 0.49 0.43 0.37 0.29 0.20
0.22 0.21 0.24 0.22 0.16 0.18 0.20 0.18 0.19 0.24 0.21 0.20 0.20 0.21 0.21 0.23 0.26 0.29 0.31 0.32 0.33 0.34 0.35 0.39 0.43 0.49 0.54 0.60 0.71 0.81 0.88 0.96 1.10 1.06 1.01 0.95 0.83 0.85 0.91 0.92 0.90 0.88 0.83 0.71 0.57 0.50 0.48 0.45 0.36
0.34 0.15 0.12 0.12 0.14 0.16 0.18 0.18 0.18 0.20 0.18 0.16 0.16 0.15 0.18 0.21 0.25 0.28 0.30 0.32 0.34 0.33 0.35 0.39 0.47 0.54 0.63 0.79 1.01 1.24 1.31 1.48 1.71 1.66 1.51 1.33 1.15 1.10 1.19 1.16 1.10 1.10 1.14 1.09 0.84 0.78 0.69 0.59 0.50
0.15 0.10 0.09 0.10 0.12 0.11 0.12 0.13 0.13 0.13 0.12 0.12 0.12 0.12 0.12 0.13 0.17 0.20 0.22 0.25 0.24 0.23 0.27 0.34 0.40 0.50 0.60 0.82 1.15 1.58 1.80 1.91 1.92 1.94 1.85 1.64 1.42 1.42 1.55 1.51 1.48 1.45 1.38 1.28 1.17 1.20 1.10 0.83 0.63
0.09 0.09 0.08 0.06 0.08 0.07 0.06 0.06 0.06 0.06 0.07 0.08 0.08 0.09 0.09 0.11 0.12 0.11 0.13 0.15 0.14 0.14 0.17 0.26 0.33 0.42 0.56 0.82 1.14 1.49 1.85 1.92 1.93 1.93 1.88 1.76 1.65 1.65 1.68 1.84 1.90 1.85 1.89 1.83 1.59 1.63 1.59 1.25 0.93
0.07 0.10 0.10 0.07 0.05 0.05 0.04 0.04 0.04 0.04 0.05 0.06 0.06 0.07 0.08 0.10 0.11 0.09 0.08 0.09 0.10 0.11 0.12 0.18 0.24 0.38 0.66 1.00 1.32 1.51 1.80 1.92 1.97 1.91 1.91 1.95 1.90 1.80 1.82 1.91 2.04 2.03 2.05 2.08 2.08 1.97 1.98 1.74 1.34
0.07 0.06 0.05 0.05 0.05 0.04 0.04 0.05 0.04 0.06 0.10 0.12 0.13 0.13 0.15 0.17 0.14 0.12 0.09 0.07 0.08 0.09 0.11 0.14 0.20 0.40 0.73 1.08 1.34 1.57 1.92 2.03 1.99 2.02 2.00 2.02 2.05 2.01 2.05 2.05 2.13 2.13 2.11 2.14 2.20 2.11 2.12 2.13 1.75
0.03 0.03 0.03 0.04 0.05 0.04 0.03 0.05 0.05 0.08 0.15 0.21 0.23 0.23 0.23 0.20 0.15 0.12 0.10 0.09 0.10 0.10 0.13 0.20 0.33 0.52 0.77 0.97 1.23 1.58 1.83 1.94 2.10 2.05 2.02 2.02 2.07 2.07 2.09 2.14 2.26 2.24 2.16 2.13 2.30 2.29 2.30 2.19 2.07
0.01 0.02 0.04 0.05 0.07 0.06 0.03 0.07 0.13 0.17 0.19 0.21 0.22 0.23 0.23 0.20 0.16 0.16 0.15 0.15 0.16 0.18 0.24 0.33 0.49 0.64 0.84 1.00 1.20 1.38 1.64 1.79 1.95 2.04 1.97 1.95 1.99 2.07 1.96 1.88 2.00 2.03 2.04 2.04 2.17 2.30 2.38 2.32 2.32
0.01 0.04 0.10 0.13 0.16 0.12 0.07 0.16 0.28 0.23 0.18 0.19 0.20 0.21 0.23 0.24 0.26 0.30 0.31 0.34 0.41 0.44 0.47 0.55 0.65 0.75 0.87 0.96 1.05 1.11 1.28 1.45 1.52 1.67 1.76 1.86 1.86 1.90 1.91 1.80 1.78 1.75 1.70 1.73 1.85 1.91 1.96 2.06 2.19
0.01 0.03 0.10 0.15 0.15 0.15 0.17 0.36 0.41 0.27 0.23 0.22 0.23 0.25 0.29 0.37 0.43 0.53 0.61 0.69 0.76 0.75 0.74 0.80 0.85 0.84 0.82 0.87 0.93 0.96 1.03 1.10 1.16 1.20 1.26 1.42 1.58 1.61 1.66 1.65 1.58 1.58 1.63 1.63 1.69 1.71 1.71 1.70 1.76
0.01 0.03 0.06 0.13 0.12 0.13 0.20 0.43 0.44 0.32 0.31 0.31 0.32 0.33 0.42 0.61 0.71 0.81 0.91 0.92 0.93 0.90 0.85 0.86 0.88 0.86 0.84 0.84 0.84 0.79 0.78 0.84 0.92 0.94 1.01 1.07 1.16 1.18 1.23 1.31 1.35 1.38 1.46 1.51 1.62 1.67 1.67 1.60 1.57
0.03 0.07 0.13 0.26 0.34 0.30 0.31 0.48 0.52 0.44 0.39 0.37 0.41 0.49 0.65 0.91 1.06 1.19 1.27 1.17 1.10 1.09 1.13 1.01 0.92 0.85 0.82 0.82 0.82 0.76 0.71 0.74 0.76 0.76 0.83 0.82 0.83 0.82 0.88 0.99 1.11 1.24 1.36 1.45 1.52 1.55 1.61 1.63 1.59
0.10 0.16 0.24 0.37 0.45 0.57 0.70 0.85 0.68 0.58 0.58 0.65 0.75 0.83 1.00 1.26 1.43 1.52 1.53 1.43 1.23 1.10 1.09 1.03 0.92 0.81 0.71 0.70 0.75 0.74 0.69 0.69 0.71 0.69 0.66 0.61 0.63 0.67 0.76 0.80 0.92 1.03 1.13 1.32 1.49 1.52 1.53 1.53 1.51
0.22 0.37 0.50 0.74 0.74 0.67 0.87 1.09 0.84 0.69 0.71 0.74 0.80 0.92 1.10 1.22 1.30 1.34 1.30 1.29 1.18 1.08 0.99 0.95 0.84 0.71 0.65 0.69 0.71 0.73 0.65 0.60 0.61 0.60 0.60 0.54 0.51 0.54 0.61 0.71 0.85 0.96 1.01 1.04 1.14 1.22 1.23 1.24 1.29

GEFSSGP_prec_meanprecacc_090.txt.gz
Total_Precipitation_Accumulation
0.14 0.38 0.67 0.81 0.94 0.53 0.25 0.16 0.10 0.09 0.09 0.03 0.02 0.04 0.13 0.24 0.41 0.60 0.32 0.16 0.07 0.04 0.04 0.12 0.22 0.20 0.19 0.26 0.35 0.46 0.52 0.61 0.49 0.40 0.32 0.25 0.19 0.19 0.19 0.14 0.16 0.21 0.16 0.14 0.20 0.33 0.37 0.41 0.44
0.32 0.70 0.82 1.10 0.92 0.37 0.32 0.25 0.20 0.15 0.08 0.04 0.03 0.03 0.08 0.08 0.07 0.15 0.26 0.22 0.07 0.05 0.08 0.19 0.26 0.24 0.27 0.35 0.42 0.49 0.57 0.67 0.58 0.44 0.32 0.22 0.19 0.20 0.20 0.29 0.36 0.26 0.13 0.11 0.18 0.33 0.36 0.35 0.43
0.40 0.69 0.86 0.99 0.54 0.34 0.38 0.32 0.25 0.15 0.06 0.05 0.04 0.03 0.08 0.13 0.15 0.24 0.29 0.18 0.08 0.06 0.15 0.32 0.38 0.34 0.37 0.45 0.55 0.58 0.66 0.68 0.59 0.45 0.27 0.22 0.23 0.25 0.33 0.43 0.36 0.19 0.11 0.10 0.16 0.27 0.31 0.27 0.28
0.46 0.79 0.86 0.67 0.43 0.31 0.32 0.31 0.20 0.15 0.08 0.04 0.03 0.06 0.10 0.12 0.20 0.31 0.28 0.22 0.17 0.14 0.17 0.31 0.41 0.38 0.41 0.53 0.67 0.66 0.68 0.72 0.66 0.47 0.31 0.25 0.26 0.25 0.30 0.37 0.32 0.16 0.08 0.07 0.12 0.22 0.28 0.26 0.24
0.45 0.73 0.91 0.68 0.44 0.36 0.29 0.25 0.15 0.14 0.11 0.07 0.04 0.12 0.22 0.26 0.25 0.31 0.36 0.39 0.37 0.28 0.23 0.29 0.39 0.38 0.43 0.58 0.69 0.72 0.75 0.76 0.71 0.50 0.38 0.33 0.30 0.25 0.29 0.31 0.26 0.13 0.08 0.08 0.11 0.18 0.22 0.21 0.23
0.51 0.73 1.09 0.96 0.65 0.45 0.32 0.24 0.15 0.16 0.13 0.11 0.12 0.21 0.28 0.36 0.37 0.39 0.38 0.43 0.46 0.47 0.40 0.35 0.45 0.49 0.50 0.59 0.65 0.70 0.75 0.78 0.73 0.52 0.44 0.40 0.35 0.30 0.29 0.28 0.22 0.14 0.12 0.12 0.12 0.15 0.17 0.16 0.19
0.52 0.76 1.01 0.83 0.70 0.67 0.46 0.23 0.18 0.17 0.17 0.16 0.18 0.30 0.33 0.39 0.35 0.47 0.52 0.53 0.59 0.59 0.56 0.50 0.50 0.54 0.64 0.71 0.74 0.74 0.76 0.78 0.80 0.64 0.53 0.48 0.39 0.31 0.27 0.24 0.18 0.14 0.14 0.13 0.11 0.11 0.11 0.11 0.16
0.24 0.40 0.67 0.70 0.66 0.67 0.43 0.19 0.14 0.13 0.13 0.11 0.15 0.29 0.37 0.37 0.37 0.48 0.56 0.58 0.59 0.61 0.61 0.57 0.59 0.67 0.66 0.72 0.88 0.93 0.92 0.94 0.95 0.79 0.64 0.55 0.38 0.29 0.28 0.20 0.18 0.16 0.17 0.17 0.14 0.12 0.10 0.11 0.15
0.28 0.44 0.80 0.97 0.74 0.57 0.31 0.19 0.12 0.10 0.10 0.09 0.10 0.18 0.26 0.29 0.38 0.47 0.57 0.59 0.60 0.58 0.58 0.57 0.61 0.72 0.78 0.75 0.84 1.10 1.12 1.13 1.08 0.93 0.79 0.66 0.51 0.42 0.39 0.30 0.33 0.25 0.20 0.22 0.23 0.20 0.14 0.11 0.12
0.45 0.63 0.90 0.86 0.50 0.36 0.25 0.21 0.15 0.13 0.12 0.10 0.13 0.20 0.29 0.37 0.46 0.51 0.54 0.57 0.59 0.61 0.56 0.55 0.54 0.60 0.69 0.74 0.85 1.01 1.00 1.00 0.98 1.12 1.02 0.88 0.80 0.67 0.38 0.40 0.43 0.39 0.33 0.29 0.26 0.24 0.15 0.09 0.07
0.36 0.49 0.48 0.50 0.33 0.21 0.18 0.15 0.14 0.16 0.19 0.15 0.17 0.22 0.31 0.41 0.49 0.54 0.57 0.56 0.59 0.57 0.52 0.47 0.44 0.44 0.50 0.63 0.80 0.90 1.01 1.11 1.06 1.02 1.02 0.98 0.85 0.66 0.50 0.50 0.47 0.45 0.40 0.31 0.31 0.24 0.15 0.11 0.10
0.22 0.24 0.22 0.18 0.15 0.15 0.17 0.14 0.14 0.15 0.18 0.15 0.17 0.22 0.31 0.37 0.45 0.48 0.51 0.51 0.49 0.50 0.52 0.46 0.36 0.36 0.38 0.46 0.55 0.66 0.80 0.92 0.95 0.80 0.76 0.84 0.85 0.73 0.59 0.55 0.52 0.49 0.47 0.46 0.44 0.37 0.25 0.18 0.13
0.23 0.21 0.15 0.17 0.17 0.16 0.15 0.16 0.14 0.13 0.17 0.17 0.21 0.27 0.32 0.39 0.45 0.47 0.44 0.43 0.42 0.47 0.53 0.49 0.41 0.39 0.37 0.41 0.43 0.44 0.63 0.80 0.90 0.92 0.79 0.76 0.78 0.76 0.68 0.54 0.53 0.46 0.45 0.47 0.46 0.39 0.31 0.27 0.20
0.19 0.21 0.23 0.22 0.19 0.16 0.14 0.14 0.13 0.18 0.21 0.19 0.19 0.23 0.29 0.37 0.43 0.44 0.42 0.42 0.41 0.44 0.53 0.53 0.51 0.51 0.46 0.40 0.40 0.42 0.51 0.63 0.71 0.86 0.87 0.81 0.74 0.70 0.72 0.65 0.63 0.62 0.58 0.56 0.49 0.40 0.41 0.36 0.26
0.11 0.15 0.19 0.18 0.18 0.16 0.15 0.15 0.15 0.24 0.24 0.21 0.18 0.19 0.23 0.30 0.34 0.36 0.37 0.37 0.41 0.42 0.44 0.45 0.46 0.54 0.54 0.52 0.50 0.50 0.59 0.61 0.68 0.74 0.75 0.83 0.74 0.67 0.72 0.74 0.72 0.70 0.70 0.65 0.59 0.51 0.50 0.42 0.30
0.12 0.20 0.31 0.25 0.22 0.20 0.21 0.19 0.17 0.26 0.24 0.23 0.22 0.22 0.21 0.24 0.28 0.31 0.34 0.34 0.37 0.36 0.37 0.42 0.41 0.47 0.56 0.61 0.64 0.69 0.71 0.75 0.82 0.79 0.75 0.76 0.72 0.69 0.78 0.78 0.79 0.83 0.73 0.67 0.65 0.63 0.60 0.51 0.41
0.25 0.27 0.30 0.27 0.21 0.20 0.22 0.18 0.19 0.24 0.22 0.20 0.20 0.21 0.21 0.23 0.26 0.29 0.31 0.32 0.33 0.34 0.35 0.39 0.43 0.49 0.54 0.60 0.71 0.81 0.89 0.97 1.11 1.08 1.03 0.97 0.85 0.86 0.92 0.96 0.97 0.98 0.96 0.85 0.71 0.67 0.68 0.67 0.59
0.39 0.21 0.18 0.17 0.17 0.17 0.18 0.18 0.18 0.20 0.18 0.16 0.16 0.15 0.18 0.22 0.25 0.28 0.30 0.32 0.34 0.34 0.35 0.40 0.47 0.55 0.65 0.80 1.02 1.26 1.33 1.51 1.73 1.68 1.53 1.34 1.16 1.12 1.21 1.19 1.15 1.19 1.24 1.21 0.98 0.97 0.89 0.78 0.71
0.20 0.12 0.10 0.11 0.13 0.12 0.12 0.13 0.13 0.13 0.12 0.13 0.12 0.12 0.12 0.13 0.17 0.20 0.22 0.25 0.24 0.24 0.28 0.35 0.40 0.50 0.62 0.84 1.17 1.60 1.82 1.94 1.95 1.98 1.88 1.67 1.45 1.45 1.59 1.55 1.53 1.52 1.46 1.38 1.29 1.36 1.29 1.02 0.85
0.11 0.09 0.08 0.07 0.09 0.07 0.06 0.06 0.06 0.06 0.07 0.08 0.08 0.09 0.09 0.11 0.12 0.11 0.13 0.15 0.14 0.15 0.17 0.27 0.33 0.42 0.56 0.84 1.17 1.52 1.88 1.95 1.97 1.97 1.91 1.79 1.68 1.69 1.72 1.88 1.96 1.92 1.98 1.93 1.71 1.78 1.78 1.45 1.17
0.07 0.10 0.11 0.08 0.06 0.05 0.04 0.04 0.04 0.04 0.05 0.06 0.06 0.07 0.08 0.10 0.11 0.09 0.08 0.09 0.11 0.11 0.12 0.18 0.24 0.39 0.67 1.01 1.33 1.53 1.82 1.94 2.00 1.95 1.95 1.98 1.94 1.83 1.85 1.95 2.08 2.09 2.14 2.19 2.22 2.13 2.16 1.93 1.55
0.08 0.07 0.05 0.05 0.05 0.04 0.04 0.05 0.04 0.06 0.10 0.12 0.13 0.13 0.15 0.17 0.14 0.12 0.09 0.07 0.08 0.09 0.11 0.14 0.20 0.40 0.74 1.08 1.34 1.59 1.94 2.05 2.03 2.05 2.04 2.05 2.07 2.03 2.08 2.09 2.17 2.18 2.18 2.24 2.31 2.25 2.30 2.33 1.94
0.04 0.04 0.04 0.04 0.05 0.04 0.03 0.05 0.05 0.08 0.15 0.21 0.23 0.23 0.23 0.20 0.15 0.12 0.10 0.09 0.10 0.10 0.13 0.20 0.34 0.52 0.78 0.99 1.24 1.60 1.86 1.98 2.13 2.08 2.05 2.05 2.10 2.11 2.14 2.19 2.32 2.29 2.23 2.22 2.40 2.41 2.44 2.35 2.27
0.02 0.03 0.04 0.05 0.07 0.06 0.03 0.07 0.13 0.17 0.19 0.21 0.22 0.23 0.23 0.20 0.16 0.16 0.15 0.15 0.16 0.18 0.24 0.33 0.49 0.64 0.85 1.02 1.22 1.41 1.67 1.82 1.97 2.07 2.00 1.99 2.03 2.11 2.00 1.93 2.05 2.10 2.11 2.11 2.26 2.41 2.49 2.43 2.46
0.01 0.04 0.10 0.13 0.16 0.12 0.07 0.16 0.28 0.23 0.18 0.19 0.20 0.21 0.23 0.24 0.26 0.30 0.31 0.34 0.41 0.44 0.48 0.56 0.65 0.76 0.87 0.97 1.06 1.13 1.30 1.47 1.54 1.70 1.79 1.91 1.92 1.95 1.95 1.84 1.83 1.81 1.75 1.78 1.92 1.99 2.04 2.16 2.28
0.01 0.03 0.10 0.15 0.15 0.15 0.17 0.36 0.41 0.27 0.23 0.22 0.23 0.25 0.29 0.37 0.43 0.53 0.61 0.69 0.76 0.75 0.74 0.81 0.86 0.84 0.83 0.87 0.94 0.97 1.04 1.12 1.20 1.25 1.29 1.47 1.63 1.66 1.71 1.69 1.62 1.61 1.66 1.67 1.75 1.77 1.77 1.78 1.86
0.01 0.03 0.06 0.13 0.12 0.13 0.20 0.43 0.44 0.32 0.31 0.31 0.32 0.33 0.42 0.61 0.71 0.81 0.91 0.92 0.93 0.90 0.85 0.86 0.89 0.86 0.84 0.84 0.84 0.80 0.79 0.86 0.96 0.99 1.05 1.12 1.22 1.23 1.29 1.37 1.40 1.43 1.50 1.56 1.67 1.74 1.74 1.68 1.66
0.03 0.07 0.13 0.26 0.34 0.30 0.31 0.48 0.52 0.44 0.39 0.37 0.41 0.49 0.65 0.91 1.06 1.19 1.27 1.17 1.10 1.09 1.13 1.01 0.92 0.85 0.82 0.82 0.82 0.76 0.73 0.77 0.81 0.81 0.87 0.85 0.87 0.87 0.92 1.04 1.17 1.32 1.43 1.50 1.57 1.61 1.67 1.70 1.67
0.10 0.16 0.24 0.37 0.45 0.57 0.70 0.85 0.68 0.58 0.58 0.65 0.75 0.83 1.00 1.26 1.43 1.52 1.53 1.43 1.23 1.10 1.09 1.04 0.93 0.82 0.71 0.70 0.76 0.76 0.71 0.72 0.76 0.75 0.70 0.64 0.66 0.71 0.81 0.85 0.98 1.10 1.21 1.40 1.57 1.59 1.59 1.61 1.59
0.22 0.37 0.50 0.74 0.74 0.67 0.87 1.09 0.84 0.69 0.71 0.74 0.80 0.92 1.10 1.22 1.30 1.34 1.30 1.29 1.18 1.08 1.00 0.95 0.85 0.71 0.65 0.70 0.72 0.75 0.67 0.61 0.64 0.63 0.64 0.57 0.54 0.58 0.65 0.76 0.91 1.03 1.10 1.13 1.22 1.30 1.31 1.32 1.36

GEFSSGP_prec_meanprecacc_096.txt.gz
Total_Precipitation_Accumulation
0.22 0.47 0.88 1.18 1.29 0.80 0.45 0.30 0.21 0.14 0.13 0.07 0.04 0.05 0.15 0.31 0.52 0.70 0.48 0.37 0.24 0.19 0.14 0.20 0.30 0.25 0.21 0.27 0.36 0.47 0.52 0.62 0.51 0.42 0.34 0.26 0.21 0.20 0.20 0.14 0.17 0.21 0.16 0.14 0.20 0.33 0.37 0.41 0.44
0.38 0.88 1.21 1.64 1.36 0.60 0.48 0.35 0.28 0.20 0.12 0.08 0.06 0.04 0.09 0.11 0.11 0.23 0.46 0.48 0.23 0.15 0.14 0.24 0.33 0.28 0.30 0.36 0.42 0.50 0.57 0.67 0.59 0.46 0.33 0.24 0.21 0.20 0.20 0.30 0.36 0.27 0.14 0.11 0.19 0.33 0.36 0.36 0.43
0.53 1.05 1.40 1.47 0.86 0.53 0.58 0.43 0.30 0.18 0.09 0.07 0.06 0.04 0.10 0.17 0.20 0.37 0.56 0.43 0.23 0.14 0.20 0.36 0.44 0.37 0.38 0.47 0.57 0.59 0.66 0.68 0.60 0.45 0.28 0.23 0.24 0.26 0.34 0.44 0.37 0.20 0.12 0.11 0.16 0.27 0.31 0.28 0.29
0.68 1.24 1.37 1.03 0.73 0.53 0.53 0.45 0.24 0.17 0.09 0.05 0.04 0.07 0.12 0.17 0.27 0.44 0.46 0.36 0.30 0.24 0.22 0.35 0.46 0.41 0.43 0.54 0.67 0.67 0.69 0.73 0.66 0.48 0.31 0.26 0.27 0.27 0.31 0.38 0.33 0.17 0.09 0.08 0.13 0.22 0.28 0.26 0.25
0.76 1.15 1.27 0.95 0.72 0.57 0.47 0.36 0.19 0.15 0.12 0.08 0.05 0.15 0.27 0.34 0.33 0.38 0.43 0.46 0.44 0.36 0.29 0.33 0.43 0.41 0.46 0.60 0.71 0.73 0.77 0.78 0.73 0.52 0.40 0.35 0.32 0.27 0.31 0.33 0.28 0.14 0.09 0.09 0.12 0.19 0.22 0.21 0.24
0.91 1.09 1.37 1.17 0.87 0.69 0.49 0.33 0.18 0.18 0.15 0.13 0.13 0.23 0.32 0.44 0.43 0.43 0.43 0.48 0.51 0.52 0.43 0.37 0.48 0.52 0.53 0.60 0.67 0.72 0.77 0.80 0.75 0.55 0.47 0.44 0.39 0.33 0.31 0.31 0.25 0.16 0.14 0.13 0.13 0.16 0.18 0.16 0.20
0.85 1.04 1.22 1.01 0.91 0.87 0.56 0.28 0.21 0.19 0.19 0.18 0.18 0.31 0.35 0.46 0.39 0.51 0.55 0.56 0.63 0.63 0.58 0.51 0.52 0.57 0.66 0.73 0.77 0.77 0.80 0.81 0.84 0.68 0.58 0.53 0.44 0.35 0.32 0.29 0.23 0.18 0.17 0.15 0.13 0.13 0.12 0.12 0.17
0.51 0.65 0.82 0.86 0.83 0.80 0.48 0.22 0.17 0.14 0.14 0.11 0.16 0.30 0.39 0.40 0.38 0.49 0.58 0.59 0.60 0.62 0.62 0.58 0.60 0.68 0.67 0.73 0.91 0.96 0.96 0.99 1.01 0.85 0.70 0.63 0.47 0.37 0.36 0.28 0.25 0.23 0.23 0.22 0.18 0.15 0.13 0.12 0.16
0.53 0.66 0.93 1.12 0.86 0.64 0.33 0.21 0.13 0.11 0.10 0.09 0.11 0.19 0.26 0.30 0.39 0.48 0.58 0.59 0.61 0.58 0.58 0.58 0.61 0.72 0.78 0.76 0.86 1.12 1.14 1.17 1.13 0.99 0.87 0.75 0.56 0.46 0.44 0.36 0.40 0.36 0.32 0.32 0.31 0.25 0.17 0.13 0.14
0.71 0.90 1.12 0.98 0.56 0.40 0.27 0.23 0.15 0.14 0.13 0.11 0.14 0.21 0.29 0.37 0.46 0.51 0.54 0.57 0.59 0.61 0.56 0.55 0.54 0.60 0.69 0.74 0.85 1.01 1.00 1.01 0.99 1.14 1.04 0.91 0.84 0.71 0.43 0.45 0.53 0.55 0.53 0.46 0.39 0.35 0.21 0.12 0.09
0.65 0.77 0.65 0.61 0.39 0.25 0.20 0.16 0.15 0.17 0.20 0.16 0.18 0.22 0.31 0.41 0.50 0.54 0.57 0.56 0.59 0.57 0.52 0.47 0.44 0.44 0.50 0.63 0.80 0.90 1.01 1.11 1.07 1.03 1.03 1.00 0.87 0.68 0.55 0.57 0.55 0.55 0.54 0.42 0.40 0.33 0.21 0.15 0.12
0.53 0.46 0.37 0.29 0.20 0.18 0.21 0.17 0.16 0.16 0.19 0.16 0.17 0.23 0.32 0.37 0.45 0.48 0.51 0.51 0.49 0.50 0.52 0.46 0.36 0.36 0.38 0.46 0.55 0.66 0.80 0.92 0.95 0.81 0.77 0.85 0.87 0.75 0.61 0.60 0.58 0.56 0.55 0.55 0.52 0.45 0.34 0.25 0.20
0.59 0.46 0.31 0.28 0.24 0.21 0.19 0.19 0.15 0.14 0.18 0.17 0.21 0.27 0.33 0.39 0.45 0.47 0.44 0.43 0.42 0.47 0.53 0.49 0.41 0.39 0.37 0.41 0.43 0.44 0.63 0.80 0.90 0.92 0.79 0.77 0.78 0.76 0.69 0.57 0.58 0.52 0.52 0.55 0.55 0.51 0.43 0.39 0.33
0.53 0.42 0.34 0.32 0.26 0.20 0.17 0.17 0.14 0.19 0.22 0.19 0.19 0.23 0.29 0.37 0.43 0.44 0.42 0.42 0.41 0.44 0.53 0.53 0.51 0.51 0.46 0.40 0.40 0.42 0.51 0.63 0.71 0.86 0.88 0.82 0.74 0.71 0.73 0.67 0.67 0.67 0.63 0.62 0.59 0.52 0.54 0.49 0.39
0.26 0.32 0.33 0.30 0.27 0.23 0.19 0.19 0.16 0.25 0.25 0.21 0.18 0.19 0.23 0.30 0.34 0.36 0.37 0.37 0.41 0.42 0.44 0.45 0.46 0.54 0.54 0.52 0.50 0.50 0.59 0.61 0.68 0.74 0.76 0.83 0.74 0.67 0.73 0.75 0.74 0.74 0.75 0.73 0.71 0.66 0.67 0.58 0.48
0.23 0.34 0.45 0.37 0.32 0.31 0.27 0.22 0.18 0.27 0.24 0.23 0.22 0.22 0.22 0.24 0.28 0.31 0.34 0.34 0.37 0.36 0.37 0.42 0.41 0.48 0.56 0.61 0.64 0.69 0.71 0.75 0.82 0.79 0.76 0.76 0.72 0.69 0.78 0.79 0.81 0.85 0.78 0.74 0.77 0.77 0.77 0.70 0.62
0.39 0.38 0.39 0.37 0.31 0.29 0.27 0.20 0.20 0.24 0.22 0.20 0.20 0.21 0.21 0.23 0.26 0.29 0.31 0.32 0.33 0.34 0.35 0.39 0.43 0.49 0.55 0.60 0.71 0.81 0.89 0.97 1.11 1.08 1.03 0.97 0.85 0.86 0.93 0.96 0.98 0.99 1.00 0.92 0.79 0.77 0.80 0.82 0.75
0.50 0.30 0.24 0.23 0.23 0.21 0.20 0.19 0.18 0.21 0.18 0.16 0.16 0.15 0.18 0.22 0.25 0.28 0.30 0.32 0.34 0.34 0.35 0.40 0.47 0.55 0.65 0.80 1.02 1.26 1.33 1.51 1.73 1.68 1.53 1.34 1.17 1.12 1.21 1.19 1.16 1.20 1.27 1.25 1.02 1.03 0.96 0.87 0.82
0.28 0.18 0.14 0.14 0.17 0.15 0.13 0.13 0.13 0.14 0.13 0.13 0.12 0.12 0.12 0.13 0.17 0.20 0.22 0.25 0.24 0.24 0.28 0.35 0.40 0.50 0.62 0.84 1.17 1.60 1.82 1.94 1.96 1.98 1.89 1.68 1.46 1.46 1.60 1.55 1.54 1.52 1.47 1.41 1.33 1.41 1.35 1.08 0.95
0.17 0.14 0.11 0.09 0.10 0.08 0.06 0.06 0.06 0.07 0.07 0.08 0.08 0.09 0.09 0.11 0.12 0.11 0.13 0.15 0.14 0.15 0.17 0.27 0.33 0.42 0.56 0.85 1.17 1.52 1.88 1.96 1.98 1.98 1.93 1.80 1.68 1.70 1.73 1.89 1.96 1.93 1.99 1.94 1.74 1.81 1.82 1.51 1.25
0.15 0.15 0.14 0.10 0.06 0.05 0.04 0.04 0.04 0.04 0.05 0.06 0.06 0.07 0.08 0.10 0.11 0.09 0.08 0.09 0.11 0.11 0.12 0.18 0.24 0.39 0.67 1.01 1.33 1.53 1.82 1.95 2.01 1.96 1.97 1.99 1.94 1.84 1.86 1.96 2.09 2.10 2.15 2.20 2.24 2.15 2.20 1.98 1.62
0.15 0.11 0.08 0.06 0.05 0.04 0.04 0.05 0.04 0.06 0.10 0.12 0.13 0.13 0.15 0.17 0.14 0.12 0.09 0.07 0.08 0.09 0.11 0.14 0.20 0.40 0.74 1.08 1.34 1.59 1.94 2.05 2.03 2.05 2.04 2.06 2.08 2.03 2.09 2.11 2.19 2.20 2.19 2.26 2.35 2.28 2.36 2.38 2.02
0.09 0.07 0.05 0.05 0.05 0.04 0.03 0.05 0.05 0.08 0.15 0.21 0.23 0.23 0.23 0.20 0.15 0.12 0.10 0.09 0.10 0.10 0.13 0.20 0.34 0.52 0.78 0.99 1.24 1.60 1.86 1.98 2.14 2.08 2.05 2.05 2.11 2.13 2.15 2.21 2.34 2.31 2.24 2.23 2.44 2.46 2.49 2.41 2.32
0.05 0.04 0.05 0.06 0.07 0.06 0.03 0.07 0.13 0.17 0.19 0.21 0.22 0.23 0.23 0.20 0.16 0.16 0.15 0.15 0.16 0.18 0.24 0.33 0.49 0.64 0.85 1.02 1.22 1.41 1.67 1.82 1.97 2.07 2.01 1.99 2.04 2.14 2.03 1.96 2.08 2.11 2.12 2.13 2.30 2.45 2.53 2.47 2.50
0.02 0.04 0.10 0.13 0.16 0.12 0.07 0.16 0.28 0.23 0.18 0.19 0.20 0.21 0.23 0.24 0.26 0.30 0.31 0.34 0.41 0.44 0.48 0.56 0.65 0.76 0.87 0.97 1.06 1.13 1.30 1.47 1.54 1.71 1.79 1.91 1.92 1.97 1.98 1.88 1.86 1.85 1.79 1.81 1.94 2.01 2.07 2.18 2.31
0.01 0.03 0.10 0.15 0.15 0.15 0.17 0.36 0.41 0.27 0.23 0.22 0.23 0.25 0.29 0.37 0.43 0.53 0.61 0.69 0.76 0.75 0.74 0.81 0.86 0.84 0.83 0.87 0.94 0.97 1.04 1.13 1.21 1.26 1.30 1.48 1.64 1.68 1.74 1.72 1.65 1.67 1.71 1.71 1.77 1.78 1.79 1.81 1.88
0.01 0.03 0.06 0.13 0.12 0.13 0.20 0.43 0.44 0.32 0.31 0.31 0.32 0.33 0.42 0.61 0.71 0.81 0.91 0.92 0.93 0.90 0.85 0.86 0.89 0.86 0.84 0.84 0.84 0.80 0.79 0.86 0.96 0.99 1.06 1.13 1.23 1.25 1.31 1.39 1.43 1.49 1.55 1.60 1.71 1.76 1.76 1.71 1.68
0.03 0.07 0.13 0.26 0.34 0.30 0.31 0.48 0.52 0.44 0.39 0.37 0.41 0.49 0.65 0.91 1.06 1.19 1.27 1.17 1.10 1.09 1.13 1.02 0.93 0.85 0.82 0.82 0.82 0.76 0.73 0.77 0.81 0.82 0.88 0.87 0.89 0.89 0.95 1.06 1.21 1.37 1.47 1.55 1.61 1.63 1.70 1.72 1.69
0.10 0.16 0.24 0.37 0.45 0.57 0.70 0.85 0.68 0.58 0.58 0.65 0.75 0.83 1.00 1.26 1.43 1.52 1.53 1.43 1.23 1.10 1.09 1.04 0.93 0.82 0.71 0.70 0.76 0.76 0.71 0.72 0.77 0.76 0.71 0.65 0.68 0.73 0.83 0.88 1.02 1.16 1.27 1.45 1.60 1.61 1.62 1.63 1.61
0.22 0.37 0.50 0.74 0.74 0.67 0.87 1.09 0.84 0.69 0.71 0.74 0.80 0.92 1.10 1.22 1.30 1.34 1.30 1.29 1.18 1.08 1.00 0.95 0.85 0.71 0.65 0.70 0.73 0.75 0.67 0.61 0.64 0.64 0.65 0.57 0.55 0.58 0.67 0.78 0.95 1.08 1.15 1.17 1.25 1.32 1.35 1.35 1.39

GEFSSGP_prec_meanprecacc_102.txt.gz
Total_Precipitation_Accumulation
0.40 0.63 1.09 1.43 1.50 0.96 0.60 0.40 0.28 0.23 0.23 0.14 0.07 0.06 0.16 0.33 0.54 0.73 0.55 0.47 0.35 0.30 0.24 0.29 0.41 0.37 0.31 0.34 0.42 0.51 0.55 0.66 0.55 0.45 0.37 0.29 0.22 0.21 0.20 0.15 0.17 0.22 0.17 0.14 0.21 0.33 0.37 0.41 0.45
0.56 1.12 1.65 2.04 1.56 0.74 0.57 0.42 0.37 0.29 0.19 0.14 0.08 0.05 0.10 0.11 0.12 0.26 0.56 0.65 0.38 0.31 0.28 0.35 0.45 0.41 0.41 0.46 0.49 0.54 0.61 0.71 0.63 0.50 0.38 0.28 0.24 0.23 0.22 0.31 0.37 0.27 0.14 0.12 0.19 0.33 0.36 0.36 0.43
0.75 1.50 2.16 1.89 1.03 0.62 0.65 0.51 0.41 0.26 0.16 0.13 0.08 0.05 0.11 0.18 0.21 0.44 0.70 0.62 0.44 0.34 0.35 0.50 0.59 0.51 0.50 0.57 0.66 0.67 0.72 0.75 0.67 0.52 0.34 0.30 0.30 0.33 0.39 0.47 0.39 0.22 0.13 0.12 0.17 0.28 0.32 0.28 0.29
0.93 1.65 1.75 1.24 0.85 0.63 0.63 0.54 0.34 0.27 0.16 0.09 0.06 0.08 0.13 0.18 0.29 0.52 0.59 0.53 0.48 0.39 0.34 0.46 0.59 0.54 0.55 0.64 0.77 0.76 0.78 0.83 0.77 0.59 0.42 0.37 0.38 0.36 0.39 0.46 0.39 0.22 0.12 0.11 0.15 0.24 0.28 0.27 0.25
0.99 1.40 1.43 1.07 0.82 0.66 0.56 0.45 0.28 0.25 0.17 0.11 0.06 0.16 0.28 0.35 0.36 0.45 0.58 0.64 0.54 0.44 0.37 0.41 0.54 0.52 0.56 0.71 0.83 0.85 0.87 0.89 0.84 0.64 0.53 0.50 0.46 0.41 0.44 0.44 0.38 0.23 0.15 0.13 0.15 0.20 0.24 0.23 0.25
1.11 1.23 1.45 1.26 0.97 0.77 0.56 0.38 0.23 0.22 0.18 0.15 0.13 0.23 0.33 0.45 0.46 0.48 0.51 0.57 0.58 0.56 0.47 0.42 0.54 0.59 0.59 0.68 0.75 0.82 0.88 0.91 0.86 0.67 0.60 0.58 0.54 0.49 0.47 0.46 0.40 0.29 0.24 0.20 0.18 0.19 0.20 0.19 0.22
1.05 1.15 1.27 1.05 0.96 0.97 0.63 0.32 0.25 0.24 0.23 0.20 0.19 0.32 0.36 0.47 0.40 0.53 0.58 0.59 0.66 0.65 0.60 0.53 0.54 0.59 0.69 0.77 0.82 0.84 0.88 0.91 0.93 0.79 0.70 0.67 0.58 0.49 0.46 0.44 0.39 0.34 0.31 0.25 0.21 0.19 0.17 0.16 0.20
0.71 0.77 0.88 0.90 0.86 0.86 0.54 0.25 0.19 0.17 0.18 0.12 0.16 0.30 0.39 0.40 0.39 0.50 0.59 0.60 0.61 0.63 0.63 0.58 0.60 0.68 0.68 0.74 0.92 0.99 1.01 1.04 1.07 0.93 0.80 0.74 0.60 0.50 0.48 0.40 0.38 0.40 0.42 0.39 0.32 0.26 0.22 0.19 0.22
0.70 0.77 0.99 1.16 0.90 0.68 0.37 0.25 0.17 0.13 0.12 0.10 0.11 0.19 0.26 0.30 0.39 0.48 0.58 0.59 0.61 0.58 0.58 0.58 0.61 0.73 0.78 0.76 0.86 1.12 1.16 1.19 1.16 1.02 0.92 0.80 0.61 0.51 0.50 0.43 0.53 0.52 0.51 0.53 0.50 0.43 0.33 0.24 0.22
0.84 0.99 1.18 1.03 0.60 0.43 0.32 0.26 0.18 0.15 0.14 0.11 0.14 0.21 0.29 0.37 0.46 0.51 0.54 0.57 0.59 0.61 0.56 0.55 0.54 0.60 0.69 0.74 0.85 1.01 1.00 1.01 1.00 1.14 1.05 0.92 0.87 0.74 0.45 0.49 0.64 0.72 0.72 0.65 0.57 0.54 0.37 0.22 0.14
0.75 0.85 0.70 0.64 0.44 0.30 0.24 0.20 0.18 0.18 0.20 0.16 0.18 0.22 0.31 0.41 0.50 0.54 0.57 0.56 0.59 0.57 0.52 0.47 0.44 0.44 0.50 0.63 0.80 0.90 1.01 1.11 1.07 1.03 1.03 1.00 0.88 0.69 0.56 0.58 0.58 0.61 0.62 0.51 0.50 0.44 0.30 0.22 0.18
0.62 0.52 0.43 0.34 0.25 0.24 0.26 0.21 0.18 0.17 0.19 0.16 0.17 0.23 0.32 0.37 0.45 0.48 0.51 0.51 0.49 0.50 0.52 0.46 0.36 0.36 0.38 0.46 0.55 0.66 0.80 0.92 0.95 0.81 0.77 0.85 0.87 0.75 0.61 0.61 0.58 0.57 0.57 0.59 0.59 0.53 0.41 0.33 0.27
0.69 0.53 0.38 0.34 0.31 0.27 0.24 0.23 0.17 0.14 0.18 0.18 0.21 0.27 0.33 0.39 0.45 0.48 0.44 0.44 0.42 0.47 0.53 0.49 0.41 0.39 0.37 0.41 0.43 0.44 0.63 0.80 0.90 0.92 0.79 0.77 0.78 0.76 0.69 0.58 0.59 0.53 0.55 0.58 0.58 0.56 0.51 0.48 0.40
0.60 0.47 0.41 0.38 0.33 0.24 0.21 0.20 0.16 0.19 0.22 0.20 0.19 0.23 0.29 0.37 0.43 0.44 0.42 0.42 0.41 0.44 0.53 0.53 0.51 0.51 0.46 0.40 0.40 0.42 0.51 0.63 0.71 0.86 0.88 0.82 0.74 0.71 0.73 0.67 0.68 0.68 0.65 0.64 0.61 0.57 0.61 0.57 0.46
0.33 0.38 0.38 0.33 0.30 0.26 0.23 0.21 0.17 0.25 0.26 0.22 0.19 0.19 0.23 0.30 0.34 0.36 0.37 0.37 0.41 0.42 0.44 0.45 0.46 0.54 0.54 0.52 0.50 0.50 0.59 0.61 0.68 0.74 0.76 0.83 0.74 0.67 0.73 0.75 0.74 0.75 0.75 0.74 0.74 0.71 0.73 0.64 0.55
0.29 0.40 0.50 0.40 0.34 0.34 0.30 0.23 0.19 0.27 0.25 0.23 0.22 0.22 0.22 0.24 0.28 0.31 0.34 0.34 0.37 0.36 0.37 0.42 0.41 0.48 0.56 0.61 0.64 0.69 0.71 0.75 0.82 0.79 0.76 0.76 0.72 0.69 0.78 0.79 0.81 0.86 0.78 0.75 0.80 0.84 0.84 0.77 0.69
0.46 0.42 0.42 0.38 0.32 0.30 0.28 0.20 0.20 0.25 0.22 0.20 0.20 0.21 0.21 0.23 0.26 0.29 0.31 0.32 0.33 0.34 0.35 0.39 0.43 0.49 0.55 0.60 0.71 0.81 0.89 0.97 1.11 1.08 1.03 0.97 0.85 0.86 0.93 0.96 0.98 1.00 1.01 0.93 0.81 0.82 0.86 0.90 0.84
0.54 0.32 0.25 0.24 0.24 0.22 0.21 0.19 0.19 0.21 0.19 0.17 0.16 0.15 0.18 0.22 0.25 0.28 0.30 0.32 0.34 0.34 0.35 0.40 0.47 0.55 0.65 0.80 1.02 1.26 1.33 1.51 1.73 1.68 1.53 1.34 1.17 1.13 1.22 1.19 1.16 1.20 1.27 1.26 1.03 1.05 1.00 0.92 0.91
0.32 0.21 0.15 0.15 0.18 0.16 0.14 0.13 0.14 0.14 0.13 0.13 0.12 0.12 0.12 0.13 0.17 0.20 0.22 0.25 0.24 0.24 0.28 0.35 0.40 0.50 0.62 0.84 1.17 1.60 1.82 1.95 1.96 1.99 1.89 1.68 1.46 1.46 1.60 1.55 1.54 1.52 1.48 1.42 1.35 1.43 1.37 1.12 1.00
0.20 0.15 0.12 0.10 0.11 0.09 0.06 0.06 0.06 0.07 0.07 0.08 0.09 0.09 0.09 0.11 0.12 0.11 0.13 0.15 0.14 0.15 0.17 0.27 0.33 0.42 0.56 0.85 1.17 1.52 1.88 1.96 1.98 1.99 1.95 1.81 1.69 1.70 1.73 1.89 1.96 1.93 1.99 1.95 1.75 1.83 1.84 1.53 1.29
0.17 0.16 0.15 0.11 0.08 0.06 0.04 0.04 0.04 0.04 0.05 0.06 0.06 0.07 0.08 0.10 0.11 0.09 0.08 0.09 0.11 0.11 0.12 0.18 0.24 0.39 0.67 1.01 1.33 1.53 1.82 1.95 2.01 1.96 1.97 2.00 1.95 1.84 1.86 1.96 2.09 2.10 2.15 2.20 2.25 2.17 2.22 2.01 1.65
0.17 0.13 0.09 0.07 0.06 0.05 0.04 0.06 0.04 0.06 0.10 0.12 0.13 0.13 0.15 0.17 0.14 0.12 0.09 0.07 0.08 0.09 0.11 0.14 0.20 0.40 0.74 1.08 1.34 1.59 1.94 2.05 2.03 2.06 2.04 2.06 2.08 2.03 2.09 2.11 2.19 2.20 2.19 2.26 2.36 2.30 2.37 2.40 2.04
0.12 0.09 0.07 0.06 0.06 0.04 0.03 0.05 0.05 0.08 0.15 0.21 0.23 0.23 0.23 0.20 0.15 0.12 0.10 0.09 0.10 0.10 0.13 0.20 0.34 0.52 0.78 0.99 1.24 1.60 1.86 1.98 2.14 2.08 2.05 2.06 2.11 2.13 2.16 2.21 2.34 2.31 2.25 2.24 2.45 2.47 2.51 2.42 2.35
0.07 0.06 0.06 0.07 0.07 0.06 0.03 0.07 0.13 0.17 0.19 0.21 0.22 0.23 0.23 0.20 0.16 0.16 0.15 0.15 0.16 0.18 0.24 0.33 0.49 0.64 0.85 1.02 1.22 1.41 1.67 1.82 1.97 2.07 2.01 2.00 2.04 2.14 2.04 1.97 2.09 2.13 2.14 2.15 2.32 2.46 2.54 2.49 2.52
0.03 0.06 0.11 0.13 0.16 0.12 0.07 0.16 0.28 0.23 0.18 0.19 0.20 0.21 0.23 0.24 0.26 0.30 0.31 0.34 0.41 0.44 0.48 0.56 0.65 0.76 0.87 0.97 1.06 1.13 1.30 1.47 1.54 1.71 1.79 1.91 1.92 1.97 1.99 1.89 1.88 1.89 1.84 1.85 1.97 2.03 2.09 2.21 2.34
0.01 0.03 0.11 0.15 0.15 0.15 0.17 0.36 0.41 0.27 0.23 0.22 0.23 0.25 0.29 0.37 0.43 0.53 0.61 0.69 0.76 0.75 0.74 0.81 0.86 0.84 0.83 0.87 0.94 0.97 1.04 1.13 1.21 1.26 1.30 1.48 1.64 1.68 1.75 1.73 1.67 1.70 1.74 1.73 1.79 1.80 1.81 1.83 1.90
0.01 0.03 0.06 0.13 0.12 0.13 0.20 0.43 0.44 0.32 0.31 0.31 0.32 0.33 0.42 0.61 0.71 0.81 0.91 0.92 0.93 0.90 0.85 0.86 0.89 0.86 0.84 0.84 0.84 0.80 0.79 0.86 0.97 0.99 1.06 1.13 1.23 1.26 1.31 1.40 1.46 1.53 1.58 1.62 1.73 1.78 1.78 1.72 1.70
0.03 0.07 0.13 0.26 0.34 0.30 0.31 0.48 0.52 0.44 0.39 0.37 0.41 0.49 0.65 0.91 1.06 1.19 1.27 1.17 1.10 1.09 1.13 1.02 0.93 0.85 0.82 0.82 0.82 0.76 0.73 0.77 0.81 0.82 0.88 0.87 0.89 0.90 0.95 1.07 1.24 1.42 1.53 1.58 1.63 1.65 1.71 1.73 1.70
0.10 0.16 0.24 0.37 0.45 0.57 0.70 0.85 0.68 0.58 0.58 0.65 0.75 0.83 1.00 1.26 1.43 1.52 1.53 1.43 1.23 1.10 1.09 1.04 0.93 0.82 0.71 0.70 0.76 0.76 0.71 0.72 0.77 0.76 0.71 0.65 0.68 0.74 0.84 0.89 1.04 1.19 1.33 1.50 1.63 1.64 1.63 1.64 1.63
0.22 0.37 0.50 0.74 0.74 0.67 0.87 1.09 0.84 0.69 0.71 0.74 0.80 0.92 1.10 1.22 1.30 1.34 1.30 1.29 1.18 1.08 1.00 0.95 0.85 0.71 0.65 0.70 0.73 0.75 0.67 0.61 0.64 0.64 0.65 0.57 0.55 0.59 0.67 0.80 0.97 1.10 1.17 1.20 1.28 1.35 1.36 1.37 1.41

GEFSSGP_prec_meanprecacc_108.txt.gz
Total_Precipitation_Accumulation
0.54 0.76 1.16 1.51 1.61 1.08 0.69 0.46 0.34 0.30 0.32 0.18 0.10 0.08 0.18 0.37 0.59 0.79 0.63 0.53 0.39 0.33 0.27 0.35 0.51 0.49 0.44 0.46 0.55 0.64 0.68 0.79 0.68 0.57 0.48 0.39 0.32 0.31 0.29 0.20 0.21 0.25 0.19 0.16 0.22 0.35 0.39 0.43 0.45
0.63 1.22 1.74 2.14 1.67 0.81 0.62 0.47 0.45 0.39 0.25 0.17 0.11 0.08 0.12 0.14 0.14 0.30 0.65 0.77 0.46 0.38 0.34 0.43 0.57 0.54 0.56 0.60 0.64 0.70 0.76 0.84 0.76 0.63 0.50 0.41 0.38 0.36 0.34 0.42 0.47 0.34 0.19 0.15 0.21 0.35 0.38 0.38 0.45
0.84 1.62 2.28 1.99 1.11 0.66 0.70 0.56 0.49 0.34 0.20 0.16 0.11 0.07 0.14 0.19 0.23 0.48 0.78 0.71 0.52 0.40 0.43 0.60 0.71 0.63 0.62 0.68 0.78 0.81 0.86 0.88 0.79 0.63 0.47 0.45 0.48 0.54 0.63 0.66 0.53 0.33 0.22 0.20 0.23 0.33 0.35 0.31 0.31
1.00 1.75 1.84 1.31 0.91 0.68 0.66 0.58 0.40 0.33 0.20 0.10 0.07 0.09 0.14 0.19 0.31 0.56 0.67 0.62 0.55 0.43 0.38 0.52 0.68 0.66 0.66 0.74 0.86 0.84 0.87 0.92 0.88 0.70 0.55 0.51 0.52 0.54 0.60 0.65 0.54 0.36 0.26 0.22 0.24 0.30 0.34 0.33 0.29
1.06 1.48 1.51 1.14 0.87 0.70 0.58 0.48 0.32 0.30 0.21 0.12 0.07 0.17 0.29 0.37 0.37 0.47 0.65 0.69 0.56 0.46 0.39 0.43 0.58 0.58 0.62 0.76 0.89 0.91 0.95 0.97 0.93 0.73 0.64 0.64 0.60 0.55 0.60 0.62 0.56 0.40 0.31 0.28 0.28 0.31 0.32 0.31 0.31
1.23 1.33 1.52 1.32 1.02 0.82 0.58 0.40 0.25 0.24 0.20 0.15 0.14 0.24 0.34 0.47 0.48 0.50 0.52 0.58 0.59 0.57 0.47 0.42 0.56 0.61 0.62 0.70 0.79 0.86 0.92 0.97 0.91 0.73 0.67 0.67 0.65 0.60 0.59 0.61 0.58 0.47 0.44 0.39 0.36 0.34 0.33 0.31 0.31
1.13 1.22 1.33 1.10 1.02 1.02 0.67 0.34 0.28 0.27 0.25 0.21 0.19 0.32 0.37 0.48 0.42 0.53 0.58 0.59 0.66 0.65 0.60 0.53 0.54 0.59 0.70 0.79 0.84 0.86 0.90 0.93 0.97 0.85 0.77 0.75 0.67 0.57 0.54 0.53 0.52 0.51 0.52 0.47 0.41 0.37 0.34 0.32 0.32
0.76 0.83 0.93 0.95 0.92 0.92 0.57 0.27 0.21 0.19 0.19 0.13 0.16 0.30 0.39 0.40 0.39 0.51 0.59 0.60 0.61 0.64 0.63 0.58 0.60 0.68 0.68 0.74 0.93 0.99 1.01 1.05 1.08 0.96 0.83 0.79 0.65 0.56 0.54 0.47 0.47 0.52 0.59 0.61 0.54 0.46 0.40 0.36 0.36
0.74 0.84 1.05 1.20 0.94 0.71 0.39 0.27 0.19 0.14 0.12 0.10 0.11 0.19 0.26 0.30 0.39 0.48 0.58 0.60 0.61 0.58 0.58 0.58 0.61 0.73 0.78 0.76 0.86 1.12 1.16 1.19 1.16 1.02 0.92 0.82 0.63 0.53 0.53 0.47 0.61 0.60 0.62 0.65 0.65 0.61 0.52 0.42 0.38
0.90 1.06 1.22 1.04 0.62 0.45 0.34 0.29 0.20 0.16 0.14 0.12 0.14 0.21 0.29 0.37 0.46 0.51 0.55 0.57 0.60 0.61 0.56 0.55 0.54 0.60 0.69 0.74 0.85 1.01 1.00 1.01 1.00 1.15 1.05 0.92 0.88 0.75 0.47 0.51 0.69 0.80 0.80 0.73 0.67 0.69 0.54 0.40 0.31
0.78 0.88 0.72 0.65 0.45 0.31 0.26 0.22 0.20 0.19 0.21 0.16 0.18 0.22 0.31 0.41 0.50 0.54 0.57 0.56 0.59 0.57 0.52 0.47 0.44 0.44 0.50 0.63 0.80 0.90 1.01 1.11 1.07 1.03 1.03 1.01 0.88 0.69 0.56 0.59 0.59 0.64 0.67 0.56 0.57 0.52 0.40 0.33 0.31
0.65 0.54 0.44 0.35 0.26 0.26 0.28 0.23 0.19 0.18 0.19 0.16 0.17 0.23 0.32 0.37 0.45 0.48 0.51 0.51 0.49 0.50 0.52 0.46 0.36 0.36 0.38 0.46 0.55 0.66 0.80 0.92 0.95 0.81 0.77 0.85 0.87 0.75 0.62 0.61 0.59 0.58 0.61 0.65 0.65 0.60 0.50 0.42 0.37
0.72 0.54 0.39 0.36 0.32 0.29 0.26 0.25 0.18 0.14 0.18 0.18 0.21 0.27 0.33 0.39 0.45 0.48 0.44 0.44 0.42 0.47 0.53 0.49 0.41 0.39 0.37 0.41 0.43 0.44 0.63 0.80 0.90 0.92 0.79 0.77 0.79 0.77 0.70 0.58 0.59 0.54 0.56 0.60 0.61 0.61 0.58 0.57 0.51
0.62 0.49 0.42 0.40 0.34 0.25 0.22 0.21 0.17 0.20 0.22 0.20 0.19 0.23 0.29 0.38 0.43 0.44 0.42 0.42 0.41 0.44 0.53 0.53 0.51 0.51 0.46 0.40 0.40 0.42 0.51 0.63 0.71 0.86 0.88 0.82 0.75 0.71 0.73 0.67 0.68 0.68 0.65 0.65 0.63 0.60 0.66 0.65 0.56
0.35 0.39 0.40 0.35 0.31 0.27 0.24 0.22 0.18 0.25 0.26 0.22 0.19 0.19 0.23 0.30 0.34 0.36 0.37 0.37 0.41 0.42 0.44 0.45 0.47 0.54 0.54 0.52 0.50 0.50 0.59 0.61 0.68 0.74 0.76 0.83 0.74 0.67 0.73 0.75 0.75 0.75 0.76 0.75 0.75 0.73 0.76 0.71 0.65
0.31 0.42 0.51 0.40 0.34 0.34 0.31 0.24 0.19 0.27 0.25 0.23 0.22 0.22 0.22 0.24 0.28 0.31 0.34 0.34 0.37 0.37 0.37 0.42 0.41 0.48 0.56 0.61 0.64 0.69 0.71 0.75 0.82 0.79 0.76 0.76 0.72 0.69 0.78 0.79 0.81 0.86 0.79 0.76 0.82 0.86 0.87 0.82 0.77
0.50 0.45 0.44 0.39 0.32 0.31 0.29 0.21 0.20 0.25 0.22 0.21 0.20 0.22 0.21 0.23 0.26 0.29 0.31 0.32 0.33 0.34 0.36 0.40 0.43 0.49 0.55 0.60 0.71 0.81 0.89 0.98 1.11 1.08 1.03 0.97 0.85 0.86 0.93 0.97 0.98 1.00 1.02 0.94 0.83 0.84 0.89 0.94 0.91
0.58 0.34 0.26 0.24 0.25 0.23 0.22 0.19 0.19 0.21 0.19 0.17 0.16 0.15 0.18 0.22 0.25 0.28 0.30 0.33 0.34 0.34 0.36 0.40 0.47 0.55 0.65 0.80 1.02 1.26 1.34 1.51 1.73 1.68 1.53 1.35 1.17 1.13 1.22 1.20 1.16 1.21 1.28 1.27 1.06 1.08 1.03 0.95 0.97
0.33 0.22 0.16 0.16 0.18 0.17 0.14 0.13 0.14 0.14 0.13 0.13 0.12 0.12 0.12 0.13 0.17 0.20 0.22 0.25 0.24 0.24 0.28 0.35 0.40 0.50 0.62 0.84 1.17 1.60 1.82 1.95 1.97 1.99 1.90 1.69 1.46 1.46 1.61 1.56 1.55 1.53 1.49 1.44 1.37 1.46 1.40 1.15 1.04
0.22 0.17 0.14 0.11 0.12 0.10 0.07 0.06 0.06 0.07 0.07 0.08 0.09 0.09 0.09 0.11 0.12 0.11 0.13 0.15 0.14 0.15 0.17 0.27 0.33 0.42 0.56 0.85 1.17 1.52 1.88 1.97 1.99 1.99 1.95 1.83 1.70 1.70 1.73 1.89 1.98 1.95 2.01 1.97 1.77 1.86 1.87 1.56 1.32
0.19 0.18 0.15 0.11 0.10 0.07 0.05 0.04 0.04 0.04 0.05 0.06 0.06 0.07 0.08 0.10 0.11 0.09 0.08 0.09 0.11 0.11 0.12 0.18 0.24 0.39 0.67 1.01 1.33 1.53 1.82 1.95 2.01 1.97 1.97 2.00 1.95 1.85 1.87 1.97 2.10 2.11 2.17 2.22 2.27 2.19 2.25 2.04 1.69
0.19 0.14 0.10 0.08 0.08 0.06 0.05 0.06 0.05 0.06 0.10 0.12 0.13 0.13 0.15 0.17 0.14 0.12 0.09 0.07 0.08 0.09 0.11 0.14 0.20 0.40 0.74 1.08 1.34 1.59 1.94 2.05 2.03 2.06 2.05 2.06 2.09 2.04 2.10 2.11 2.20 2.22 2.22 2.29 2.38 2.33 2.41 2.43 2.07
0.15 0.11 0.09 0.08 0.08 0.05 0.03 0.05 0.05 0.08 0.16 0.21 0.23 0.23 0.23 0.20 0.15 0.12 0.10 0.09 0.10 0.10 0.13 0.20 0.34 0.52 0.78 0.99 1.24 1.60 1.86 1.98 2.14 2.08 2.06 2.06 2.13 2.15 2.16 2.22 2.35 2.33 2.28 2.27 2.47 2.50 2.55 2.46 2.38
0.10 0.08 0.07 0.08 0.08 0.06 0.03 0.07 0.13 0.17 0.19 0.21 0.22 0.23 0.23 0.20 0.16 0.16 0.15 0.15 0.16 0.18 0.24 0.33 0.49 0.64 0.85 1.02 1.22 1.41 1.67 1.82 1.97 2.07 2.01 2.00 2.06 2.16 2.05 1.98 2.11 2.16 2.17 2.17 2.33 2.48 2.58 2.52 2.55
0.05 0.07 0.13 0.14 0.17 0.13 0.07 0.16 0.28 0.23 0.18 0.19 0.20 0.21 0.23 0.24 0.26 0.30 0.31 0.34 0.41 0.44 0.48 0.56 0.65 0.76 0.87 0.97 1.06 1.13 1.30 1.47 1.54 1.71 1.80 1.92 1.93 1.99 2.02 1.91 1.90 1.93 1.87 1.89 1.99 2.05 2.11 2.23 2.37
0.02 0.05 0.12 0.16 0.16 0.15 0.17 0.36 0.41 0.27 0.23 0.22 0.23 0.25 0.29 0.37 0.43 0.53 0.61 0.69 0.76 0.75 0.74 0.81 0.86 0.84 0.83 0.87 0.94 0.97 1.04 1.13 1.21 1.26 1.30 1.48 1.65 1.69 1.77 1.76 1.69 1.73 1.78 1.77 1.82 1.83 1.84 1.86 1.92
0.02 0.04 0.07 0.14 0.12 0.13 0.20 0.43 0.44 0.32 0.31 0.31 0.32 0.33 0.42 0.61 0.71 0.81 0.91 0.92 0.93 0.90 0.85 0.86 0.89 0.86 0.84 0.84 0.84 0.80 0.79 0.86 0.97 1.00 1.07 1.14 1.24 1.26 1.32 1.41 1.48 1.55 1.60 1.66 1.77 1.81 1.80 1.75 1.72
0.03 0.07 0.13 0.26 0.34 0.30 0.31 0.48 0.52 0.44 0.39 0.37 0.41 0.49 0.65 0.91 1.06 1.19 1.27 1.17 1.10 1.09 1.13 1.02 0.93 0.85 0.82 0.82 0.82 0.76 0.73 0.78 0.81 0.82 0.89 0.87 0.89 0.91 0.96 1.08 1.25 1.45 1.55 1.61 1.66 1.68 1.74 1.76 1.72
0.10 0.16 0.24 0.37 0.45 0.57 0.70 0.85 0.68 0.58 0.58 0.65 0.75 0.83 1.00 1.26 1.43 1.52 1.53 1.43 1.23 1.10 1.10 1.04 0.93 0.82 0.72 0.71 0.76 0.76 0.71 0.73 0.77 0.76 0.71 0.66 0.69 0.75 0.86 0.90 1.05 1.21 1.37 1.54 1.67 1.66 1.66 1.67 1.65
0.22 0.37 0.50 0.74 0.74 0.67 0.87 1.09 0.84 0.69 0.71 0.74 0.80 0.92 1.10 1.22 1.30 1.34 1.30 1.29 1.18 1.08 1.00 0.95 0.85 0.71 0.65 0.70 0.73 0.75 0.67 0.61 0.64 0.64 0.66 0.58 0.55 0.60 0.69 0.81 0.98 1.12 1.21 1.24 1.31 1.38 1.40 1.41 1.44